| time (UTC) | temp F | wind direction | speed MPH | gust MPH | rain 1hr in | rain 24hr in | rain mn in | humidity % | barometer mb |
| 20260507174603 | 60 | 262 | 2.0 | 9.0 | 0.00 | 0.00 | 0.00 | 53 | 1084.4 |
| 20260507174517 | 60 | 261 | 3.0 | 9.0 | 0.00 | 0.00 | 0.00 | 53 | 1084.4 |
| 20260507174503 | 60 | 261 | 3.0 | 9.0 | 0.00 | 0.00 | 0.00 | 53 | 1084.3 |
| 20260507174403 | 60 | 260 | 3.0 | 9.0 | 0.00 | 0.00 | 0.00 | 53 | 1084.3 |
| 20260507174204 | 60 | 257 | 3.0 | 9.0 | 0.00 | 0.00 | 0.00 | 53 | 1084.4 |
| 20260507174103 | 60 | 256 | 3.0 | 9.0 | 0.00 | 0.00 | 0.00 | 52 | 1084.3 |
| 20260507174003 | 60 | 253 | 3.0 | 9.0 | 0.00 | 0.00 | 0.00 | 52 | 1084.3 |
| 20260507173903 | 60 | 252 | 3.0 | 9.0 | 0.00 | 0.00 | 0.00 | 52 | 1084.4 |
| 20260507173803 | 60 | 252 | 3.0 | 9.0 | 0.00 | 0.00 | 0.00 | 52 | 1084.5 |
| 20260507173703 | 60 | 250 | 3.0 | 9.0 | 0.00 | 0.00 | 0.00 | 52 | 1084.5 |
| 20260507173618 | 60 | 248 | 3.0 | 9.0 | 0.00 | 0.00 | 0.00 | 52 | 1084.5 |
| 20260507173603 | 60 | 247 | 3.0 | 9.0 | 0.00 | 0.00 | 0.00 | 52 | 1084.3 |
| 20260507173503 | 60 | 242 | 3.0 | 8.0 | 0.00 | 0.00 | 0.00 | 52 | 1084.2 |
| 20260507173303 | 61 | 243 | 2.0 | 8.0 | 0.00 | 0.00 | 0.00 | 51 | 1084.5 |
| 20260507173203 | 61 | 242 | 2.0 | 8.0 | 0.00 | 0.00 | 0.00 | 51 | 1084.4 |
| 20260507173103 | 61 | 241 | 2.0 | 8.0 | 0.00 | 0.00 | 0.00 | 51 | 1084.2 |
| 20260507173003 | 61 | 241 | 2.0 | 8.0 | 0.00 | 0.00 | 0.00 | 51 | 1084.4 |
| 20260507172903 | 61 | 241 | 2.0 | 7.0 | 0.00 | 0.00 | 0.00 | 51 | 1084.3 |
| 20260507172803 | 61 | 241 | 2.0 | 7.0 | 0.00 | 0.00 | 0.00 | 51 | 1084.3 |
| 20260507172703 | 61 | 244 | 1.0 | 6.0 | 0.00 | 0.00 | 0.00 | 51 | 1084.1 |
| 20260507172516 | 61 | 265 | 1.0 | 3.0 | 0.00 | 0.00 | 0.00 | 52 | 1084.4 |
| 20260507172503 | 61 | 267 | 1.0 | 3.0 | 0.00 | 0.00 | 0.00 | 52 | 1084.3 |
| 20260507172403 | 61 | 268 | 1.0 | 3.0 | 0.00 | 0.00 | 0.00 | 52 | 1084.3 |
| 20260507172203 | 61 | 272 | 1.0 | 3.0 | 0.00 | 0.00 | 0.00 | 51 | 1084.2 |
| 20260507172103 | 61 | 275 | 1.0 | 3.0 | 0.00 | 0.00 | 0.00 | 51 | 1084.3 |
| 20260507172003 | 61 | 275 | 1.0 | 6.0 | 0.00 | 0.00 | 0.00 | 52 | 1084.3 |
| 20260507171903 | 61 | 274 | 2.0 | 6.0 | 0.00 | 0.00 | 0.00 | 51 | 1084.3 |
| 20260507171803 | 61 | 275 | 2.0 | 6.0 | 0.00 | 0.00 | 0.00 | 51 | 1084.2 |
| 20260507171703 | 61 | 274 | 2.0 | 6.0 | 0.00 | 0.00 | 0.00 | 51 | 1084.2 |
| 20260507171618 | 61 | 268 | 2.0 | 6.0 | 0.00 | 0.00 | 0.00 | 51 | 1084.2 |
| 20260507171603 | 61 | 268 | 2.0 | 6.0 | 0.00 | 0.00 | 0.00 | 51 | 1084.5 |
| 20260507171503 | 61 | 269 | 2.0 | 6.0 | 0.00 | 0.00 | 0.00 | 51 | 1084.1 |
| 20260507171303 | 61 | 268 | 2.0 | 6.0 | 0.00 | 0.00 | 0.00 | 51 | 1084.5 |
| 20260507171203 | 61 | 270 | 2.0 | 6.0 | 0.00 | 0.00 | 0.00 | 51 | 1084.1 |
| 20260507171103 | 61 | 274 | 2.0 | 6.0 | 0.00 | 0.00 | 0.00 | 51 | 1084.4 |
| 20260507171003 | 61 | 275 | 2.0 | 6.0 | 0.00 | 0.00 | 0.00 | 51 | 1084.3 |
| 20260507170918 | 61 | 275 | 2.0 | 6.0 | 0.00 | 0.00 | 0.00 | 51 | 1084.3 |
| 20260507170903 | 61 | 275 | 2.0 | 6.0 | 0.00 | 0.00 | 0.00 | 51 | 1084.1 |
| 20260507170803 | 61 | 273 | 2.0 | 6.0 | 0.00 | 0.00 | 0.00 | 51 | 1084.1 |
| 20260507170603 | 61 | 273 | 2.0 | 6.0 | 0.00 | 0.00 | 0.00 | 51 | 1084.2 |
| 20260507170503 | 62 | 272 | 2.0 | 6.0 | 0.00 | 0.00 | 0.00 | 51 | 1084.3 |
| 20260507170417 | 62 | 274 | 2.0 | 6.0 | 0.00 | 0.00 | 0.00 | 51 | 1084.0 |
| 20260507170403 | 62 | 275 | 2.0 | 6.0 | 0.00 | 0.00 | 0.00 | 51 | 1084.0 |
| 20260507170303 | 62 | 276 | 2.0 | 8.0 | 0.00 | 0.00 | 0.00 | 51 | 1084.1 |
| 20260507170103 | 62 | 272 | 3.0 | 8.0 | 0.00 | 0.00 | 0.00 | 52 | 1084.2 |
| 20260507170003 | 61 | 271 | 3.0 | 8.0 | 0.00 | 0.00 | 0.00 | 52 | 1084.1 |
| 20260507165903 | 61 | 270 | 3.0 | 8.0 | 0.00 | 0.00 | 0.00 | 52 | 1084.0 |
| 20260507165803 | 61 | 268 | 3.0 | 8.0 | 0.00 | 0.00 | 0.00 | 51 | 1084.1 |
| 20260507165703 | 61 | 268 | 3.0 | 8.0 | 0.00 | 0.00 | 0.00 | 51 | 1084.1 |
| 20260507165603 | 61 | 268 | 3.0 | 8.0 | 0.00 | 0.00 | 0.00 | 51 | 1084.0 |
| 20260507165503 | 61 | 267 | 3.0 | 8.0 | 0.00 | 0.00 | 0.00 | 50 | 1084.3 |
| 20260507165403 | 62 | 263 | 3.0 | 8.0 | 0.00 | 0.00 | 0.00 | 51 | 1084.0 |
| 20260507165203 | 61 | 262 | 3.0 | 7.0 | 0.00 | 0.00 | 0.00 | 52 | 1084.4 |
| 20260507165103 | 61 | 261 | 3.0 | 7.0 | 0.00 | 0.00 | 0.00 | 52 | 1083.9 |
| 20260507165003 | 61 | 259 | 3.0 | 7.0 | 0.00 | 0.00 | 0.00 | 52 | 1084.2 |
| 20260507164903 | 61 | 254 | 3.0 | 7.0 | 0.00 | 0.00 | 0.00 | 52 | 1084.1 |
| 20260507164803 | 61 | 256 | 3.0 | 6.0 | 0.00 | 0.00 | 0.00 | 52 | 1084.2 |
| 20260507164717 | 61 | 258 | 3.0 | 6.0 | 0.00 | 0.00 | 0.00 | 52 | 1084.2 |
| 20260507164703 | 61 | 256 | 3.0 | 6.0 | 0.00 | 0.00 | 0.00 | 52 | 1084.1 |
| 20260507164603 | 61 | 256 | 3.0 | 8.0 | 0.00 | 0.00 | 0.00 | 52 | 1084.0 |
| 20260507164417 | 62 | 258 | 3.0 | 8.0 | 0.00 | 0.00 | 0.00 | 52 | 1084.1 |
| 20260507164403 | 62 | 258 | 3.0 | 8.0 | 0.00 | 0.00 | 0.00 | 52 | 1084.2 |
| 20260507164317 | 62 | 257 | 3.0 | 8.0 | 0.00 | 0.00 | 0.00 | 52 | 1084.2 |
| 20260507164303 | 62 | 256 | 3.0 | 8.0 | 0.00 | 0.00 | 0.00 | 52 | 1084.3 |
| 20260507164218 | 62 | 254 | 3.0 | 8.0 | 0.00 | 0.00 | 0.00 | 52 | 1084.3 |
| 20260507163903 | 62 | 254 | 3.0 | 9.0 | 0.00 | 0.00 | 0.00 | 51 | 1084.3 |
| 20260507163803 | 62 | 254 | 4.0 | 9.0 | 0.00 | 0.00 | 0.00 | 52 | 1084.0 |
| 20260507163703 | 62 | 254 | 4.0 | 9.0 | 0.00 | 0.00 | 0.00 | 52 | 1084.1 |
| 20260507163603 | 62 | 252 | 4.0 | 9.0 | 0.00 | 0.00 | 0.00 | 51 | 1084.3 |
| 20260507163503 | 62 | 250 | 4.0 | 10.0 | 0.00 | 0.00 | 0.00 | 51 | 1084.2 |
| 20260507163403 | 62 | 251 | 3.0 | 10.0 | 0.00 | 0.00 | 0.00 | 52 | 1084.3 |
| 20260507163303 | 62 | 253 | 3.0 | 10.0 | 0.00 | 0.00 | 0.00 | 52 | 1084.3 |
| 20260507163203 | 62 | 252 | 4.0 | 10.0 | 0.00 | 0.00 | 0.00 | 52 | 1084.0 |
| 20260507163117 | 62 | 253 | 4.0 | 10.0 | 0.00 | 0.00 | 0.00 | 52 | 1084.0 |
| 20260507163103 | 62 | 253 | 4.0 | 10.0 | 0.00 | 0.00 | 0.00 | 52 | 1084.2 |
| 20260507163003 | 62 | 255 | 4.0 | 10.0 | 0.00 | 0.00 | 0.00 | 51 | 1084.0 |
| 20260507162803 | 62 | 253 | 3.0 | 10.0 | 0.00 | 0.00 | 0.00 | 53 | 1084.3 |
| 20260507162717 | 62 | 248 | 3.0 | 10.0 | 0.00 | 0.00 | 0.00 | 53 | 1084.3 |
| 20260507162703 | 62 | 245 | 3.0 | 10.0 | 0.00 | 0.00 | 0.00 | 53 | 1084.1 |
| 20260507162603 | 62 | 248 | 4.0 | 14.0 | 0.00 | 0.00 | 0.00 | 52 | 1084.0 |
| 20260507162518 | 62 | 251 | 4.0 | 14.0 | 0.00 | 0.00 | 0.00 | 52 | 1084.0 |
| 20260507162403 | 62 | 254 | 4.0 | 14.0 | 0.00 | 0.00 | 0.00 | 52 | 1084.1 |
| 20260507162203 | 62 | 258 | 5.0 | 14.0 | 0.00 | 0.00 | 0.00 | 51 | 1084.2 |
| 20260507162103 | 63 | 259 | 5.0 | 14.0 | 0.00 | 0.00 | 0.00 | 51 | 1084.3 |
| 20260507162003 | 63 | 255 | 5.0 | 14.0 | 0.00 | 0.00 | 0.00 | 51 | 1084.0 |
| 20260507161903 | 63 | 263 | 5.0 | 14.0 | 0.00 | 0.00 | 0.00 | 50 | 1084.0 |
| 20260507161816 | 63 | 268 | 5.0 | 14.0 | 0.00 | 0.00 | 0.00 | 50 | 1084.0 |
| 20260507161803 | 63 | 267 | 5.0 | 14.0 | 0.00 | 0.00 | 0.00 | 50 | 1083.9 |
| 20260507161703 | 63 | 273 | 5.0 | 14.0 | 0.00 | 0.00 | 0.00 | 51 | 1084.1 |
| 20260507161503 | 63 | 280 | 4.0 | 13.0 | 0.00 | 0.00 | 0.00 | 50 | 1084.0 |
| 20260507161403 | 63 | 280 | 4.0 | 13.0 | 0.00 | 0.00 | 0.00 | 51 | 1084.2 |
| 20260507161303 | 63 | 277 | 4.0 | 13.0 | 0.00 | 0.00 | 0.00 | 51 | 1084.0 |
| 20260507161203 | 63 | 280 | 4.0 | 13.0 | 0.00 | 0.00 | 0.00 | 52 | 1084.3 |
| 20260507161103 | 63 | 274 | 4.0 | 13.0 | 0.00 | 0.00 | 0.00 | 52 | 1083.9 |
| 20260507161003 | 63 | 271 | 5.0 | 13.0 | 0.00 | 0.00 | 0.00 | 52 | 1083.9 |
| 20260507160903 | 63 | 266 | 4.0 | 10.0 | 0.00 | 0.00 | 0.00 | 52 | 1083.9 |
| 20260507160804 | 63 | 262 | 4.0 | 10.0 | 0.00 | 0.00 | 0.00 | 52 | 1083.9 |
| 20260507160717 | 63 | 261 | 4.0 | 10.0 | 0.00 | 0.00 | 0.00 | 52 | 1083.9 |
| 20260507160703 | 63 | 262 | 4.0 | 10.0 | 0.00 | 0.00 | 0.00 | 52 | 1084.1 |
| 20260507160603 | 63 | 260 | 4.0 | 10.0 | 0.00 | 0.00 | 0.00 | 52 | 1084.2 |
| 20260507160403 | 63 | 260 | 4.0 | 10.0 | 0.00 | 0.00 | 0.00 | 52 | 1084.0 |
| 20260507160303 | 63 | 263 | 4.0 | 10.0 | 0.00 | 0.00 | 0.00 | 52 | 1083.9 |
| 20260507160203 | 63 | 261 | 4.0 | 10.0 | 0.00 | 0.00 | 0.00 | 52 | 1084.1 |
| 20260507160003 | 63 | 277 | 4.0 | 10.0 | 0.00 | 0.00 | 0.00 | 53 | 1084.0 |
| 20260507155903 | 62 | 277 | 4.0 | 10.0 | 0.00 | 0.00 | 0.00 | 53 | 1084.0 |
| 20260507155803 | 62 | 280 | 4.0 | 10.0 | 0.00 | 0.00 | 0.00 | 53 | 1084.1 |
| 20260507155703 | 62 | 278 | 4.0 | 10.0 | 0.00 | 0.00 | 0.00 | 53 | 1084.1 |
| 20260507155617 | 62 | 282 | 5.0 | 10.0 | 0.00 | 0.00 | 0.00 | 53 | 1084.1 |
| 20260507155603 | 62 | 282 | 4.0 | 10.0 | 0.00 | 0.00 | 0.00 | 53 | 1084.0 |
| 20260507155503 | 62 | 280 | 4.0 | 10.0 | 0.00 | 0.00 | 0.00 | 54 | 1084.1 |
| 20260507155306 | 62 | 278 | 4.0 | 10.0 | 0.00 | 0.00 | 0.00 | 53 | 1083.8 |
| 20260507155203 | 62 | 278 | 4.0 | 10.0 | 0.00 | 0.00 | 0.00 | 53 | 1084.1 |
| 20260507155103 | 62 | 274 | 4.0 | 10.0 | 0.00 | 0.00 | 0.00 | 53 | 1084.1 |
| 20260507155003 | 62 | 278 | 3.0 | 9.0 | 0.00 | 0.00 | 0.00 | 54 | 1084.1 |
| 20260507154903 | 62 | 277 | 3.0 | 9.0 | 0.00 | 0.00 | 0.00 | 54 | 1083.9 |
| 20260507154818 | 62 | 271 | 3.0 | 9.0 | 0.00 | 0.00 | 0.00 | 54 | 1083.9 |
| 20260507154803 | 62 | 269 | 3.0 | 9.0 | 0.00 | 0.00 | 0.00 | 54 | 1083.9 |
| 20260507154703 | 62 | 264 | 3.0 | 9.0 | 0.00 | 0.00 | 0.00 | 54 | 1083.9 |
| 20260507154518 | 62 | 259 | 4.0 | 9.0 | 0.00 | 0.00 | 0.00 | 55 | 1084.3 |
| 20260507154503 | 62 | 259 | 4.0 | 9.0 | 0.00 | 0.00 | 0.00 | 55 | 1084.0 |
| 20260507154416 | 62 | 260 | 4.0 | 9.0 | 0.00 | 0.00 | 0.00 | 55 | 1084.0 |
| 20260507154403 | 62 | 260 | 4.0 | 9.0 | 0.00 | 0.00 | 0.00 | 55 | 1083.9 |
| 20260507154103 | 62 | 264 | 5.0 | 13.0 | 0.00 | 0.00 | 0.00 | 54 | 1084.1 |
| 20260507154003 | 62 | 265 | 5.0 | 13.0 | 0.00 | 0.00 | 0.00 | 54 | 1083.9 |
| 20260507153903 | 62 | 267 | 6.0 | 13.0 | 0.00 | 0.00 | 0.00 | 54 | 1084.1 |
| 20260507153803 | 62 | 270 | 6.0 | 13.0 | 0.00 | 0.00 | 0.00 | 54 | 1084.0 |
| 20260507153703 | 62 | 274 | 6.0 | 13.0 | 0.00 | 0.00 | 0.00 | 54 | 1083.9 |
| 20260507153603 | 62 | 272 | 5.0 | 13.0 | 0.00 | 0.00 | 0.00 | 54 | 1084.0 |
| 20260507153503 | 62 | 273 | 5.0 | 13.0 | 0.00 | 0.00 | 0.00 | 54 | 1083.9 |
| 20260507153403 | 62 | 273 | 5.0 | 13.0 | 0.00 | 0.00 | 0.00 | 54 | 1084.0 |
| 20260507153303 | 62 | 272 | 4.0 | 13.0 | 0.00 | 0.00 | 0.00 | 53 | 1084.1 |
| 20260507153217 | 63 | 271 | 4.0 | 13.0 | 0.00 | 0.00 | 0.00 | 53 | 1084.1 |
| 20260507153203 | 63 | 269 | 4.0 | 13.0 | 0.00 | 0.00 | 0.00 | 53 | 1083.9 |
| 20260507153103 | 63 | 262 | 4.0 | 11.0 | 0.00 | 0.00 | 0.00 | 53 | 1084.1 |
| 20260507152917 | 63 | 250 | 3.0 | 11.0 | 0.00 | 0.00 | 0.00 | 53 | 1084.1 |
| 20260507152903 | 63 | 250 | 3.0 | 11.0 | 0.00 | 0.00 | 0.00 | 53 | 1083.9 |
| 20260507152818 | 63 | 247 | 3.0 | 11.0 | 0.00 | 0.00 | 0.00 | 53 | 1083.9 |
| 20260507152803 | 63 | 246 | 3.0 | 11.0 | 0.00 | 0.00 | 0.00 | 53 | 1083.9 |
| 20260507152503 | 63 | 243 | 2.0 | 11.0 | 0.00 | 0.00 | 0.00 | 54 | 1083.9 |
| 20260507152403 | 63 | 244 | 2.0 | 11.0 | 0.00 | 0.00 | 0.00 | 53 | 1084.0 |
| 20260507152306 | 63 | 249 | 2.0 | 11.0 | 0.00 | 0.00 | 0.00 | 53 | 1084.0 |
| 20260507152203 | 63 | 257 | 2.0 | 11.0 | 0.00 | 0.00 | 0.00 | 53 | 1084.3 |
| 20260507152103 | 63 | 260 | 2.0 | 8.0 | 0.00 | 0.00 | 0.00 | 54 | 1084.1 |
| 20260507152003 | 63 | 264 | 2.0 | 8.0 | 0.00 | 0.00 | 0.00 | 55 | 1084.2 |
| 20260507151903 | 62 | 265 | 3.0 | 8.0 | 0.00 | 0.00 | 0.00 | 54 | 1084.0 |
| 20260507151803 | 62 | 267 | 3.0 | 8.0 | 0.00 | 0.00 | 0.00 | 54 | 1083.7 |
| 20260507151703 | 62 | 269 | 3.0 | 8.0 | 0.00 | 0.00 | 0.00 | 54 | 1083.8 |
| 20260507151603 | 62 | 273 | 3.0 | 8.0 | 0.00 | 0.00 | 0.00 | 55 | 1083.9 |
| 20260507151518 | 62 | 272 | 3.0 | 8.0 | 0.00 | 0.00 | 0.00 | 54 | 1083.9 |
| 20260507151503 | 62 | 271 | 3.0 | 8.0 | 0.00 | 0.00 | 0.00 | 54 | 1084.0 |
| 20260507151403 | 62 | 270 | 4.0 | 8.0 | 0.00 | 0.00 | 0.00 | 54 | 1084.0 |
| 20260507151203 | 62 | 270 | 4.0 | 10.0 | 0.00 | 0.00 | 0.00 | 54 | 1083.9 |
| 20260507151103 | 62 | 271 | 4.0 | 11.0 | 0.00 | 0.00 | 0.00 | 54 | 1084.0 |
| 20260507151003 | 62 | 266 | 5.0 | 11.0 | 0.00 | 0.00 | 0.00 | 53 | 1083.8 |
| 20260507150903 | 63 | 268 | 5.0 | 13.0 | 0.00 | 0.00 | 0.00 | 53 | 1084.1 |
| 20260507150818 | 63 | 268 | 5.0 | 13.0 | 0.00 | 0.00 | 0.00 | 53 | 1084.1 |
| 20260507150803 | 63 | 268 | 5.0 | 13.0 | 0.00 | 0.00 | 0.00 | 53 | 1084.0 |
| 20260507150703 | 63 | 271 | 5.0 | 13.0 | 0.00 | 0.00 | 0.00 | 53 | 1083.7 |
| 20260507150503 | 63 | 273 | 5.0 | 13.0 | 0.00 | 0.00 | 0.00 | 53 | 1083.9 |
| 20260507150403 | 63 | 273 | 6.0 | 13.0 | 0.00 | 0.00 | 0.00 | 53 | 1083.9 |
| 20260507150203 | 63 | 277 | 6.0 | 14.0 | 0.00 | 0.00 | 0.00 | 52 | 1083.8 |
| 20260507150003 | 64 | 280 | 7.0 | 14.0 | 0.00 | 0.00 | 0.00 | 52 | 1083.9 |
| 20260507145903 | 64 | 278 | 7.0 | 14.0 | 0.00 | 0.00 | 0.00 | 52 | 1083.8 |
| 20260507145803 | 64 | 281 | 7.0 | 16.0 | 0.00 | 0.00 | 0.00 | 52 | 1083.7 |
| 20260507145703 | 64 | 278 | 7.0 | 16.0 | 0.00 | 0.00 | 0.00 | 52 | 1083.8 |
| 20260507145603 | 64 | 274 | 7.0 | 16.0 | 0.00 | 0.00 | 0.00 | 52 | 1083.9 |
| 20260507145503 | 64 | 271 | 7.0 | 16.0 | 0.00 | 0.00 | 0.00 | 52 | 1083.7 |
| 20260507145403 | 64 | 271 | 7.0 | 16.0 | 0.00 | 0.00 | 0.00 | 51 | 1083.7 |
| 20260507145306 | 65 | 268 | 7.0 | 16.0 | 0.00 | 0.00 | 0.00 | 50 | 1083.9 |
| 20260507145203 | 65 | 264 | 6.0 | 16.0 | 0.00 | 0.00 | 0.00 | 50 | 1083.7 |
| 20260507145103 | 65 | 264 | 6.0 | 16.0 | 0.00 | 0.00 | 0.00 | 50 | 1083.8 |
| 20260507145003 | 65 | 264 | 6.0 | 16.0 | 0.00 | 0.00 | 0.00 | 50 | 1083.9 |
| 20260507144903 | 65 | 266 | 6.0 | 16.0 | 0.00 | 0.00 | 0.00 | 49 | 1083.6 |
| 20260507144818 | 65 | 264 | 6.0 | 16.0 | 0.00 | 0.00 | 0.00 | 49 | 1083.6 |
| 20260507144803 | 65 | 263 | 6.0 | 16.0 | 0.00 | 0.00 | 0.00 | 50 | 1083.7 |
| 20260507144716 | 65 | 266 | 6.0 | 16.0 | 0.00 | 0.00 | 0.00 | 50 | 1083.7 |
| 20260507144703 | 65 | 266 | 6.0 | 16.0 | 0.00 | 0.00 | 0.00 | 50 | 1083.7 |
| 20260507144617 | 65 | 268 | 6.0 | 16.0 | 0.00 | 0.00 | 0.00 | 50 | 1083.7 |
| 20260507144303 | 65 | 278 | 5.0 | 16.0 | 0.00 | 0.00 | 0.00 | 49 | 1083.6 |
| 20260507144217 | 65 | 278 | 5.0 | 16.0 | 0.00 | 0.00 | 0.00 | 49 | 1083.6 |
| 20260507144203 | 65 | 278 | 5.0 | 16.0 | 0.00 | 0.00 | 0.00 | 49 | 1083.7 |
| 20260507144103 | 65 | 278 | 5.0 | 16.0 | 0.00 | 0.00 | 0.00 | 49 | 1083.7 |
| 20260507143903 | 65 | 271 | 5.0 | 11.0 | 0.00 | 0.00 | 0.00 | 49 | 1083.9 |
| 20260507143818 | 65 | 267 | 5.0 | 11.0 | 0.00 | 0.00 | 0.00 | 50 | 1083.9 |
| 20260507143803 | 65 | 267 | 5.0 | 11.0 | 0.00 | 0.00 | 0.00 | 50 | 1083.6 |
| 20260507143703 | 65 | 261 | 4.0 | 11.0 | 0.00 | 0.00 | 0.00 | 52 | 1083.6 |
| 20260507143503 | 65 | 257 | 5.0 | 11.0 | 0.00 | 0.00 | 0.00 | 52 | 1083.8 |
| 20260507143403 | 64 | 255 | 5.0 | 9.0 | 0.00 | 0.00 | 0.00 | 53 | 1083.7 |
| 20260507143303 | 64 | 257 | 5.0 | 10.0 | 0.00 | 0.00 | 0.00 | 54 | 1083.6 |
| 20260507143203 | 64 | 266 | 5.0 | 11.0 | 0.00 | 0.00 | 0.00 | 54 | 1083.5 |
| 20260507143103 | 64 | 271 | 6.0 | 14.0 | 0.00 | 0.00 | 0.00 | 53 | 1083.7 |
| 20260507143003 | 64 | 277 | 6.0 | 14.0 | 0.00 | 0.00 | 0.00 | 53 | 1083.6 |
| 20260507142903 | 64 | 281 | 5.0 | 14.0 | 0.00 | 0.00 | 0.00 | 53 | 1083.4 |
| 20260507142803 | 64 | 282 | 5.0 | 14.0 | 0.00 | 0.00 | 0.00 | 53 | 1083.6 |
| 20260507142703 | 64 | 283 | 5.0 | 14.0 | 0.00 | 0.00 | 0.00 | 52 | 1083.6 |
| 20260507142603 | 64 | 281 | 5.0 | 14.0 | 0.00 | 0.00 | 0.00 | 52 | 1083.7 |
| 20260507142503 | 64 | 280 | 5.0 | 14.0 | 0.00 | 0.00 | 0.00 | 52 | 1083.7 |
| 20260507142403 | 65 | 277 | 5.0 | 14.0 | 0.00 | 0.00 | 0.00 | 52 | 1083.6 |
| 20260507142317 | 65 | 277 | 5.0 | 14.0 | 0.00 | 0.00 | 0.00 | 52 | 1083.6 |
| 20260507142306 | 65 | 276 | 5.0 | 14.0 | 0.00 | 0.00 | 0.00 | 51 | 1083.8 |
| 20260507142217 | 65 | 270 | 4.0 | 14.0 | 0.00 | 0.00 | 0.00 | 51 | 1083.8 |
| 20260507142203 | 65 | 268 | 4.0 | 14.0 | 0.00 | 0.00 | 0.00 | 52 | 1083.7 |
| 20260507141903 | 65 | 248 | 4.0 | 10.0 | 0.00 | 0.00 | 0.00 | 51 | 1083.7 |
| 20260507141817 | 65 | 248 | 4.0 | 10.0 | 0.00 | 0.00 | 0.00 | 52 | 1083.7 |
| 20260507141803 | 65 | 249 | 4.0 | 10.0 | 0.00 | 0.00 | 0.00 | 52 | 1083.5 |
| 20260507141703 | 65 | 249 | 4.0 | 10.0 | 0.00 | 0.00 | 0.00 | 52 | 1083.7 |
| 20260507141617 | 65 | 248 | 4.0 | 10.0 | 0.00 | 0.00 | 0.00 | 52 | 1083.7 |
| 20260507141503 | 65 | 254 | 4.0 | 10.0 | 0.00 | 0.00 | 0.00 | 52 | 1083.6 |
| 20260507141303 | 64 | 265 | 5.0 | 10.0 | 0.00 | 0.00 | 0.00 | 52 | 1083.8 |
| 20260507141203 | 64 | 263 | 5.0 | 11.0 | 0.00 | 0.00 | 0.00 | 51 | 1084.0 |
| 20260507141103 | 65 | 267 | 5.0 | 11.0 | 0.00 | 0.00 | 0.00 | 51 | 1083.6 |
| 20260507141003 | 65 | 271 | 5.0 | 11.0 | 0.00 | 0.00 | 0.00 | 51 | 1083.8 |
| 20260507140903 | 65 | 271 | 5.0 | 11.0 | 0.00 | 0.00 | 0.00 | 52 | 1083.8 |
| 20260507140803 | 65 | 271 | 5.0 | 11.0 | 0.00 | 0.00 | 0.00 | 52 | 1084.0 |
| 20260507140703 | 65 | 270 | 5.0 | 11.0 | 0.00 | 0.00 | 0.00 | 51 | 1083.9 |
| 20260507140603 | 65 | 271 | 4.0 | 11.0 | 0.00 | 0.00 | 0.00 | 51 | 1083.9 |
| 20260507140503 | 65 | 270 | 4.0 | 11.0 | 0.00 | 0.00 | 0.00 | 51 | 1084.0 |
| 20260507140403 | 65 | 266 | 4.0 | 11.0 | 0.00 | 0.00 | 0.00 | 50 | 1083.8 |
| 20260507140303 | 65 | 259 | 4.0 | 11.0 | 0.00 | 0.00 | 0.00 | 50 | 1083.9 |
| 20260507140217 | 65 | 258 | 4.0 | 11.0 | 0.00 | 0.00 | 0.00 | 51 | 1083.9 |
| 20260507140203 | 65 | 258 | 3.0 | 11.0 | 0.00 | 0.00 | 0.00 | 51 | 1083.9 |
| 20260507140118 | 65 | 255 | 3.0 | 9.0 | 0.00 | 0.00 | 0.00 | 51 | 1083.9 |
| 20260507135817 | 65 | 245 | 2.0 | 9.0 | 0.00 | 0.00 | 0.00 | 51 | 1083.7 |
| 20260507135803 | 65 | 248 | 2.0 | 9.0 | 0.00 | 0.00 | 0.00 | 51 | 1084.0 |
| 20260507135703 | 65 | 252 | 2.0 | 9.0 | 0.00 | 0.00 | 0.00 | 51 | 1083.9 |
| 20260507135503 | 65 | 251 | 2.0 | 9.0 | 0.00 | 0.00 | 0.00 | 51 | 1083.8 |
| 20260507135403 | 65 | 250 | 2.0 | 9.0 | 0.00 | 0.00 | 0.00 | 51 | 1083.7 |
| 20260507135306 | 65 | 248 | 2.0 | 9.0 | 0.00 | 0.00 | 0.00 | 53 | 1083.9 |
| 20260507135203 | 65 | 238 | 3.0 | 9.0 | 0.00 | 0.00 | 0.00 | 51 | 1083.9 |
| 20260507135103 | 65 | 231 | 3.0 | 9.0 | 0.00 | 0.00 | 0.00 | 51 | 1083.9 |
| 20260507135003 | 65 | 228 | 3.0 | 9.0 | 0.00 | 0.00 | 0.00 | 51 | 1083.9 |
| 20260507134903 | 65 | 221 | 3.0 | 9.0 | 0.00 | 0.00 | 0.00 | 51 | 1083.8 |
| 20260507134819 | 65 | 223 | 3.0 | 9.0 | 0.00 | 0.00 | 0.00 | 50 | 1083.8 |
| 20260507134803 | 65 | 222 | 3.0 | 9.0 | 0.00 | 0.00 | 0.00 | 50 | 1084.1 |
| 20260507134703 | 65 | 217 | 4.0 | 9.0 | 0.00 | 0.00 | 0.00 | 50 | 1083.7 |
| 20260507134503 | 65 | 213 | 3.0 | 9.0 | 0.00 | 0.00 | 0.00 | 50 | 1083.9 |
| 20260507134403 | 65 | 217 | 4.0 | 9.0 | 0.00 | 0.00 | 0.00 | 50 | 1083.9 |
| 20260507134303 | 65 | 220 | 4.0 | 9.0 | 0.00 | 0.00 | 0.00 | 49 | 1084.0 |
| 20260507134203 | 65 | 235 | 4.0 | 10.0 | 0.00 | 0.00 | 0.00 | 49 | 1083.8 |
| 20260507134103 | 65 | 242 | 4.0 | 11.0 | 0.00 | 0.00 | 0.00 | 49 | 1084.0 |
| 20260507134003 | 65 | 249 | 4.0 | 11.0 | 0.00 | 0.00 | 0.00 | 50 | 1083.9 |
| 20260507133903 | 66 | 258 | 4.0 | 11.0 | 0.00 | 0.00 | 0.00 | 48 | 1083.8 |
| 20260507133803 | 66 | 254 | 4.0 | 11.0 | 0.00 | 0.00 | 0.00 | 49 | 1083.9 |
| 20260507133703 | 66 | 264 | 4.0 | 11.0 | 0.00 | 0.00 | 0.00 | 49 | 1083.8 |
| 20260507133603 | 66 | 265 | 4.0 | 11.0 | 0.00 | 0.00 | 0.00 | 49 | 1083.6 |
| 20260507133503 | 66 | 265 | 4.0 | 11.0 | 0.00 | 0.00 | 0.00 | 48 | 1084.0 |
| 20260507133403 | 66 | 264 | 4.0 | 11.0 | 0.00 | 0.00 | 0.00 | 48 | 1083.9 |
| 20260507133303 | 66 | 267 | 4.0 | 11.0 | 0.00 | 0.00 | 0.00 | 48 | 1084.2 |
| 20260507133203 | 66 | 268 | 4.0 | 11.0 | 0.00 | 0.00 | 0.00 | 48 | 1084.0 |
| 20260507133103 | 66 | 268 | 3.0 | 8.0 | 0.00 | 0.00 | 0.00 | 48 | 1083.8 |
| 20260507133003 | 66 | 263 | 3.0 | 14.0 | 0.00 | 0.00 | 0.00 | 48 | 1084.0 |
| 20260507132903 | 66 | 260 | 4.0 | 14.0 | 0.00 | 0.00 | 0.00 | 48 | 1083.9 |
| 20260507132803 | 66 | 260 | 3.0 | 14.0 | 0.00 | 0.00 | 0.00 | 49 | 1084.0 |
| 20260507132703 | 66 | 252 | 3.0 | 14.0 | 0.00 | 0.00 | 0.00 | 49 | 1084.0 |
| 20260507132603 | 66 | 246 | 3.0 | 14.0 | 0.00 | 0.00 | 0.00 | 48 | 1083.9 |
| 20260507132503 | 66 | 244 | 3.0 | 14.0 | 0.00 | 0.00 | 0.00 | 48 | 1084.0 |
| 20260507132403 | 66 | 244 | 3.0 | 14.0 | 0.00 | 0.00 | 0.00 | 48 | 1083.8 |
| 20260507132307 | 66 | 239 | 3.0 | 14.0 | 0.00 | 0.00 | 0.00 | 48 | 1084.1 |
| 20260507132203 | 66 | 232 | 3.0 | 14.0 | 0.00 | 0.00 | 0.00 | 48 | 1083.9 |
| 20260507132103 | 66 | 230 | 3.0 | 14.0 | 0.00 | 0.00 | 0.00 | 47 | 1083.9 |
| 20260507132003 | 66 | 219 | 3.0 | 13.0 | 0.00 | 0.00 | 0.00 | 47 | 1083.8 |
| 20260507131903 | 66 | 210 | 3.0 | 8.0 | 0.00 | 0.00 | 0.00 | 48 | 1083.9 |
| 20260507131817 | 66 | 212 | 3.0 | 8.0 | 0.00 | 0.00 | 0.00 | 49 | 1083.9 |
| 20260507131803 | 66 | 213 | 3.0 | 8.0 | 0.00 | 0.00 | 0.00 | 49 | 1084.1 |
| 20260507131703 | 66 | 221 | 3.0 | 8.0 | 0.00 | 0.00 | 0.00 | 49 | 1083.9 |
| 20260507131616 | 66 | 219 | 3.0 | 8.0 | 0.00 | 0.00 | 0.00 | 48 | 1083.9 |
| 20260507131503 | 66 | 219 | 3.0 | 8.0 | 0.00 | 0.00 | 0.00 | 48 | 1083.8 |
| 20260507131303 | 66 | 226 | 3.0 | 8.0 | 0.00 | 0.00 | 0.00 | 49 | 1083.9 |
| 20260507131203 | 66 | 230 | 4.0 | 8.0 | 0.00 | 0.00 | 0.00 | 49 | 1084.0 |
| 20260507131103 | 66 | 238 | 4.0 | 8.0 | 0.00 | 0.00 | 0.00 | 49 | 1084.0 |
| 20260507131018 | 66 | 243 | 4.0 | 8.0 | 0.00 | 0.00 | 0.00 | 48 | 1084.0 |
| 20260507131003 | 66 | 247 | 3.0 | 8.0 | 0.00 | 0.00 | 0.00 | 48 | 1084.0 |
| 20260507130903 | 66 | 248 | 3.0 | 8.0 | 0.00 | 0.00 | 0.00 | 48 | 1083.9 |
| 20260507130703 | 66 | 240 | 3.0 | 8.0 | 0.00 | 0.00 | 0.00 | 47 | 1084.0 |
| 20260507130603 | 66 | 244 | 4.0 | 14.0 | 0.00 | 0.00 | 0.00 | 48 | 1084.0 |
| 20260507130517 | 66 | 248 | 4.0 | 14.0 | 0.00 | 0.00 | 0.00 | 47 | 1084.0 |
| 20260507130503 | 66 | 247 | 4.0 | 14.0 | 0.00 | 0.00 | 0.00 | 47 | 1084.0 |
| 20260507130403 | 66 | 248 | 4.0 | 14.0 | 0.00 | 0.00 | 0.00 | 48 | 1083.9 |
| 20260507130318 | 66 | 245 | 4.0 | 14.0 | 0.00 | 0.00 | 0.00 | 48 | 1083.9 |
| 20260507130203 | 66 | 245 | 4.0 | 14.0 | 0.00 | 0.00 | 0.00 | 48 | 1084.1 |
| 20260507130003 | 66 | 240 | 4.0 | 14.0 | 0.00 | 0.00 | 0.00 | 48 | 1083.9 |
| 20260507125903 | 66 | 241 | 4.0 | 14.0 | 0.00 | 0.00 | 0.00 | 48 | 1084.0 |
| 20260507125817 | 66 | 241 | 4.0 | 14.0 | 0.00 | 0.00 | 0.00 | 48 | 1083.8 |
| 20260507125803 | 66 | 241 | 4.0 | 14.0 | 0.00 | 0.00 | 0.00 | 48 | 1083.8 |
| 20260507125703 | 66 | 241 | 4.0 | 14.0 | 0.00 | 0.00 | 0.00 | 47 | 1083.7 |
| 20260507125618 | 66 | 237 | 4.0 | 14.0 | 0.00 | 0.00 | 0.00 | 48 | 1083.7 |
| 20260507125517 | 66 | 229 | 3.0 | 10.0 | 0.00 | 0.00 | 0.00 | 48 | 1083.8 |
| 20260507125503 | 66 | 228 | 3.0 | 10.0 | 0.00 | 0.00 | 0.00 | 48 | 1083.8 |
| 20260507125203 | 66 | 221 | 3.0 | 7.0 | 0.00 | 0.00 | 0.00 | 49 | 1083.9 |
| 20260507125103 | 66 | 221 | 3.0 | 7.0 | 0.00 | 0.00 | 0.00 | 49 | 1083.9 |
| 20260507125018 | 66 | 221 | 3.0 | 7.0 | 0.00 | 0.00 | 0.00 | 49 | 1083.9 |
| 20260507125003 | 66 | 221 | 3.0 | 7.0 | 0.00 | 0.00 | 0.00 | 49 | 1083.8 |
| 20260507124903 | 66 | 219 | 3.0 | 7.0 | 0.00 | 0.00 | 0.00 | 49 | 1084.1 |
| 20260507124703 | 67 | 229 | 3.0 | 9.0 | 0.00 | 0.00 | 0.00 | 48 | 1083.8 |
| 20260507124603 | 67 | 239 | 3.0 | 9.0 | 0.00 | 0.00 | 0.00 | 48 | 1083.8 |
| 20260507124503 | 67 | 245 | 3.0 | 9.0 | 0.00 | 0.00 | 0.00 | 48 | 1083.8 |
| 20260507124403 | 67 | 246 | 4.0 | 9.0 | 0.00 | 0.00 | 0.00 | 48 | 1084.1 |
| 20260507124303 | 67 | 251 | 4.0 | 9.0 | 0.00 | 0.00 | 0.00 | 48 | 1083.8 |
| 20260507124203 | 67 | 248 | 3.0 | 9.0 | 0.00 | 0.00 | 0.00 | 47 | 1083.9 |
| 20260507124103 | 67 | 242 | 3.0 | 9.0 | 0.00 | 0.00 | 0.00 | 48 | 1083.9 |
| 20260507124003 | 67 | 236 | 4.0 | 9.0 | 0.00 | 0.00 | 0.00 | 47 | 1083.9 |
| 20260507123903 | 67 | 229 | 4.0 | 9.0 | 0.00 | 0.00 | 0.00 | 47 | 1083.9 |
| 20260507123803 | 67 | 214 | 4.0 | 10.0 | 0.00 | 0.00 | 0.00 | 47 | 1083.8 |
| 20260507123717 | 67 | 213 | 4.0 | 10.0 | 0.00 | 0.00 | 0.00 | 47 | 1083.8 |
| 20260507123703 | 67 | 208 | 4.0 | 10.0 | 0.00 | 0.00 | 0.00 | 47 | 1084.0 |
| 20260507123603 | 67 | 201 | 4.0 | 10.0 | 0.00 | 0.00 | 0.00 | 48 | 1083.8 |
| 20260507123403 | 67 | 192 | 4.0 | 10.0 | 0.00 | 0.00 | 0.00 | 49 | 1084.1 |
| 20260507123303 | 67 | 186 | 4.0 | 10.0 | 0.00 | 0.00 | 0.00 | 48 | 1083.9 |
| 20260507123203 | 67 | 183 | 4.0 | 10.0 | 0.00 | 0.00 | 0.00 | 48 | 1083.9 |
| 20260507123103 | 67 | 182 | 4.0 | 10.0 | 0.00 | 0.00 | 0.00 | 48 | 1083.9 |
| 20260507123003 | 67 | 182 | 4.0 | 10.0 | 0.00 | 0.00 | 0.00 | 48 | 1083.9 |
| 20260507122903 | 67 | 187 | 4.0 | 10.0 | 0.00 | 0.00 | 0.00 | 47 | 1084.0 |
| 20260507122803 | 67 | 188 | 4.0 | 10.0 | 0.00 | 0.00 | 0.00 | 48 | 1083.9 |
| 20260507122705 | 67 | 185 | 4.0 | 10.0 | 0.00 | 0.00 | 0.00 | 48 | 1083.6 |
| 20260507122603 | 67 | 183 | 4.0 | 10.0 | 0.00 | 0.00 | 0.00 | 48 | 1083.9 |
| 20260507122503 | 67 | 184 | 4.0 | 9.0 | 0.00 | 0.00 | 0.00 | 49 | 1083.8 |
| 20260507122403 | 67 | 184 | 4.0 | 9.0 | 0.00 | 0.00 | 0.00 | 49 | 1084.0 |
| 20260507122306 | 66 | 188 | 4.0 | 9.0 | 0.00 | 0.00 | 0.00 | 49 | 1083.9 |
| 20260507122203 | 66 | 196 | 4.0 | 9.0 | 0.00 | 0.00 | 0.00 | 49 | 1083.7 |
| 20260507122103 | 66 | 204 | 4.0 | 9.0 | 0.00 | 0.00 | 0.00 | 49 | 1083.9 |
| 20260507122003 | 66 | 209 | 4.0 | 9.0 | 0.00 | 0.00 | 0.00 | 49 | 1083.9 |
| 20260507121903 | 66 | 213 | 4.0 | 9.0 | 0.00 | 0.00 | 0.00 | 49 | 1084.0 |
| 20260507121803 | 66 | 217 | 4.0 | 8.0 | 0.00 | 0.00 | 0.00 | 49 | 1083.9 |
| 20260507121703 | 66 | 217 | 4.0 | 8.0 | 0.00 | 0.00 | 0.00 | 49 | 1084.0 |
| 20260507121603 | 67 | 215 | 5.0 | 9.0 | 0.00 | 0.00 | 0.00 | 49 | 1084.0 |
| 20260507121503 | 67 | 217 | 4.0 | 9.0 | 0.00 | 0.00 | 0.00 | 49 | 1084.0 |
| 20260507121403 | 67 | 212 | 5.0 | 13.0 | 0.00 | 0.00 | 0.00 | 48 | 1083.8 |
| 20260507121303 | 67 | 211 | 5.0 | 13.0 | 0.00 | 0.00 | 0.00 | 47 | 1083.9 |
| 20260507121203 | 67 | 205 | 5.0 | 13.0 | 0.00 | 0.00 | 0.00 | 48 | 1083.9 |
| 20260507121103 | 67 | 203 | 5.0 | 13.0 | 0.00 | 0.00 | 0.00 | 47 | 1084.0 |
| 20260507121003 | 68 | 192 | 5.0 | 13.0 | 0.00 | 0.00 | 0.00 | 47 | 1083.7 |
| 20260507120903 | 68 | 185 | 5.0 | 13.0 | 0.00 | 0.00 | 0.00 | 47 | 1083.8 |
| 20260507120803 | 68 | 183 | 5.0 | 13.0 | 0.00 | 0.00 | 0.00 | 46 | 1084.0 |
| 20260507120703 | 68 | 183 | 4.0 | 13.0 | 0.00 | 0.00 | 0.00 | 46 | 1083.6 |
| 20260507120603 | 68 | 174 | 4.0 | 13.0 | 0.00 | 0.00 | 0.00 | 47 | 1083.9 |
| 20260507120503 | 68 | 170 | 4.0 | 13.0 | 0.00 | 0.00 | 0.00 | 47 | 1083.6 |
| 20260507120403 | 68 | 173 | 4.0 | 13.0 | 0.00 | 0.00 | 0.00 | 48 | 1083.7 |
| 20260507120303 | 68 | 178 | 4.0 | 13.0 | 0.00 | 0.00 | 0.00 | 48 | 1083.9 |
| 20260507120216 | 68 | 181 | 4.0 | 13.0 | 0.00 | 0.00 | 0.00 | 47 | 1083.9 |
| 20260507120203 | 68 | 180 | 4.0 | 13.0 | 0.00 | 0.00 | 0.00 | 47 | 1084.0 |
| 20260507115918 | 67 | 178 | 4.0 | 11.0 | 0.00 | 0.00 | 0.00 | 48 | 1083.9 |
| 20260507115903 | 67 | 178 | 4.0 | 11.0 | 0.00 | 0.00 | 0.00 | 48 | 1083.7 |
| 20260507115803 | 67 | 181 | 4.0 | 11.0 | 0.00 | 0.00 | 0.00 | 48 | 1083.8 |
| 20260507115717 | 67 | 190 | 4.0 | 11.0 | 0.00 | 0.00 | 0.00 | 48 | 1083.8 |
| 20260507115603 | 67 | 205 | 5.0 | 13.0 | 0.00 | 0.00 | 0.00 | 50 | 1084.0 |
| 20260507115417 | 67 | 212 | 5.0 | 13.0 | 0.00 | 0.00 | 0.00 | 50 | 1083.8 |
| 20260507115403 | 67 | 212 | 5.0 | 13.0 | 0.00 | 0.00 | 0.00 | 50 | 1083.9 |
| 20260507115306 | 66 | 221 | 5.0 | 13.0 | 0.00 | 0.00 | 0.00 | 51 | 1083.7 |
| 20260507115103 | 66 | 231 | 4.0 | 13.0 | 0.00 | 0.00 | 0.00 | 50 | 1083.9 |
| 20260507115003 | 66 | 240 | 4.0 | 13.0 | 0.00 | 0.00 | 0.00 | 49 | 1083.8 |
| 20260507114903 | 66 | 249 | 4.0 | 13.0 | 0.00 | 0.00 | 0.00 | 49 | 1083.8 |
| 20260507114803 | 66 | 253 | 4.0 | 13.0 | 0.00 | 0.00 | 0.00 | 49 | 1083.6 |
| 20260507114703 | 67 | 251 | 4.0 | 10.0 | 0.00 | 0.00 | 0.00 | 48 | 1083.6 |
| 20260507114618 | 67 | 249 | 4.0 | 10.0 | 0.00 | 0.00 | 0.00 | 48 | 1083.6 |
| 20260507114603 | 67 | 250 | 4.0 | 10.0 | 0.00 | 0.00 | 0.00 | 48 | 1083.8 |
| 20260507114503 | 67 | 251 | 4.0 | 10.0 | 0.00 | 0.00 | 0.00 | 48 | 1083.8 |
| 20260507114417 | 67 | 250 | 4.0 | 10.0 | 0.00 | 0.00 | 0.00 | 49 | 1083.8 |
| 20260507114303 | 67 | 245 | 4.0 | 9.0 | 0.00 | 0.00 | 0.00 | 49 | 1083.8 |
| 20260507114003 | 68 | 241 | 4.0 | 9.0 | 0.00 | 0.00 | 0.00 | 48 | 1083.8 |
| 20260507113918 | 68 | 236 | 4.0 | 8.0 | 0.00 | 0.00 | 0.00 | 48 | 1083.8 |
| 20260507113903 | 68 | 235 | 4.0 | 8.0 | 0.00 | 0.00 | 0.00 | 48 | 1084.0 |
| 20260507113803 | 68 | 233 | 3.0 | 8.0 | 0.00 | 0.00 | 0.00 | 47 | 1083.9 |
| 20260507113603 | 68 | 218 | 3.0 | 8.0 | 0.00 | 0.00 | 0.00 | 49 | 1083.8 |
| 20260507113516 | 68 | 211 | 3.0 | 7.0 | 0.00 | 0.00 | 0.00 | 49 | 1083.8 |
| 20260507113503 | 68 | 210 | 3.0 | 7.0 | 0.00 | 0.00 | 0.00 | 49 | 1083.8 |
| 20260507113403 | 68 | 204 | 2.0 | 7.0 | 0.00 | 0.00 | 0.00 | 50 | 1083.8 |
| 20260507113203 | 68 | 196 | 3.0 | 7.0 | 0.00 | 0.00 | 0.00 | 49 | 1083.8 |
| 20260507113103 | 67 | 197 | 2.0 | 7.0 | 0.00 | 0.00 | 0.00 | 49 | 1083.9 |
| 20260507113003 | 67 | 197 | 2.0 | 7.0 | 0.00 | 0.00 | 0.00 | 49 | 1084.0 |
| 20260507112903 | 68 | 204 | 2.0 | 7.0 | 0.00 | 0.00 | 0.00 | 49 | 1083.9 |
| 20260507112803 | 68 | 210 | 3.0 | 8.0 | 0.00 | 0.00 | 0.00 | 49 | 1084.0 |
| 20260507112703 | 68 | 223 | 3.0 | 8.0 | 0.00 | 0.00 | 0.00 | 49 | 1083.9 |
| 20260507112603 | 68 | 223 | 3.0 | 8.0 | 0.00 | 0.00 | 0.00 | 48 | 1083.9 |
| 20260507112503 | 68 | 227 | 3.0 | 8.0 | 0.00 | 0.00 | 0.00 | 48 | 1084.0 |
| 20260507112403 | 68 | 233 | 3.0 | 8.0 | 0.00 | 0.00 | 0.00 | 49 | 1083.9 |
| 20260507112306 | 68 | 239 | 3.0 | 8.0 | 0.00 | 0.00 | 0.00 | 49 | 1084.1 |
| 20260507112203 | 68 | 241 | 3.0 | 8.0 | 0.00 | 0.00 | 0.00 | 48 | 1084.0 |
| 20260507112103 | 68 | 247 | 3.0 | 8.0 | 0.00 | 0.00 | 0.00 | 48 | 1084.1 |
| 20260507112003 | 68 | 252 | 3.0 | 8.0 | 0.00 | 0.00 | 0.00 | 48 | 1083.9 |
| 20260507111904 | 68 | 245 | 3.0 | 8.0 | 0.00 | 0.00 | 0.00 | 48 | 1084.0 |
| 20260507111803 | 68 | 241 | 3.0 | 7.0 | 0.00 | 0.00 | 0.00 | 49 | 1084.1 |
| 20260507111703 | 68 | 238 | 3.0 | 7.0 | 0.00 | 0.00 | 0.00 | 49 | 1084.0 |
| 20260507111603 | 68 | 243 | 3.0 | 7.0 | 0.00 | 0.00 | 0.00 | 48 | 1084.2 |
| 20260507111503 | 68 | 243 | 3.0 | 7.0 | 0.00 | 0.00 | 0.00 | 48 | 1084.2 |
| 20260507111403 | 68 | 237 | 3.0 | 7.0 | 0.00 | 0.00 | 0.00 | 48 | 1083.7 |
| 20260507111303 | 68 | 242 | 3.0 | 10.0 | 0.00 | 0.00 | 0.00 | 48 | 1083.8 |
| 20260507111203 | 68 | 248 | 3.0 | 10.0 | 0.00 | 0.00 | 0.00 | 48 | 1083.9 |
| 20260507111103 | 68 | 250 | 3.0 | 10.0 | 0.00 | 0.00 | 0.00 | 48 | 1083.9 |
| 20260507111003 | 68 | 252 | 3.0 | 10.0 | 0.00 | 0.00 | 0.00 | 49 | 1083.8 |
| 20260507110918 | 68 | 257 | 3.0 | 10.0 | 0.00 | 0.00 | 0.00 | 49 | 1083.8 |
| 20260507110903 | 68 | 258 | 3.0 | 10.0 | 0.00 | 0.00 | 0.00 | 49 | 1084.0 |
| 20260507110803 | 68 | 257 | 4.0 | 10.0 | 0.00 | 0.00 | 0.00 | 48 | 1083.8 |
| 20260507110603 | 68 | 243 | 4.0 | 10.0 | 0.00 | 0.00 | 0.00 | 47 | 1083.9 |
| 20260507110503 | 69 | 233 | 4.0 | 10.0 | 0.00 | 0.00 | 0.00 | 46 | 1083.6 |
| 20260507110403 | 69 | 230 | 4.0 | 10.0 | 0.00 | 0.00 | 0.00 | 45 | 1083.9 |
| 20260507110303 | 69 | 218 | 4.0 | 9.0 | 0.00 | 0.00 | 0.00 | 46 | 1083.8 |
| 20260507110218 | 70 | 209 | 4.0 | 9.0 | 0.00 | 0.00 | 0.00 | 45 | 1083.8 |
| 20260507110203 | 70 | 207 | 3.0 | 9.0 | 0.00 | 0.00 | 0.00 | 45 | 1083.6 |
| 20260507110116 | 70 | 205 | 3.0 | 9.0 | 0.00 | 0.00 | 0.00 | 46 | 1083.6 |
| 20260507110103 | 70 | 207 | 3.0 | 9.0 | 0.00 | 0.00 | 0.00 | 46 | 1084.0 |
| 20260507105918 | 70 | 213 | 4.0 | 9.0 | 0.00 | 0.00 | 0.00 | 47 | 1084.0 |
| 20260507105803 | 70 | 215 | 4.0 | 9.0 | 0.00 | 0.00 | 0.00 | 47 | 1084.0 |
| 20260507105617 | 70 | 226 | 4.0 | 8.0 | 0.00 | 0.00 | 0.00 | 47 | 1083.9 |
| 20260507105603 | 69 | 230 | 4.0 | 8.0 | 0.00 | 0.00 | 0.00 | 47 | 1083.8 |
| 20260507105518 | 69 | 238 | 3.0 | 8.0 | 0.00 | 0.00 | 0.00 | 47 | 1083.8 |
| 20260507105503 | 69 | 243 | 3.0 | 8.0 | 0.00 | 0.00 | 0.00 | 47 | 1083.6 |
| 20260507105417 | 69 | 248 | 3.0 | 8.0 | 0.00 | 0.00 | 0.00 | 47 | 1083.6 |
| 20260507105218 | 69 | 254 | 4.0 | 8.0 | 0.00 | 0.00 | 0.00 | 46 | 1083.9 |
| 20260507105103 | 69 | 247 | 4.0 | 8.0 | 0.00 | 0.00 | 0.00 | 46 | 1083.9 |
| 20260507104903 | 69 | 243 | 3.0 | 8.0 | 0.00 | 0.00 | 0.00 | 46 | 1083.9 |
| 20260507104803 | 69 | 236 | 3.0 | 8.0 | 0.00 | 0.00 | 0.00 | 46 | 1083.9 |
| 20260507104703 | 70 | 221 | 3.0 | 8.0 | 0.00 | 0.00 | 0.00 | 46 | 1083.9 |
| 20260507104603 | 70 | 182 | 3.0 | 8.0 | 0.00 | 0.00 | 0.00 | 45 | 1083.6 |
| 20260507104503 | 70 | 155 | 4.0 | 10.0 | 0.00 | 0.00 | 0.00 | 45 | 1083.8 |
| 20260507104417 | 70 | 141 | 4.0 | 10.0 | 0.00 | 0.00 | 0.00 | 45 | 1083.8 |
| 20260507104403 | 70 | 139 | 3.0 | 10.0 | 0.00 | 0.00 | 0.00 | 45 | 1083.7 |
| 20260507104303 | 70 | 136 | 4.0 | 11.0 | 0.00 | 0.00 | 0.00 | 47 | 1083.8 |
| 20260507104218 | 70 | 144 | 4.0 | 11.0 | 0.00 | 0.00 | 0.00 | 47 | 1083.8 |
| 20260507104103 | 70 | 147 | 5.0 | 11.0 | 0.00 | 0.00 | 0.00 | 47 | 1083.7 |
| 20260507103903 | 70 | 148 | 5.0 | 11.0 | 0.00 | 0.00 | 0.00 | 48 | 1083.7 |
| 20260507103803 | 70 | 157 | 5.0 | 11.0 | 0.00 | 0.00 | 0.00 | 48 | 1083.6 |
| 20260507103703 | 69 | 160 | 5.0 | 11.0 | 0.00 | 0.00 | 0.00 | 47 | 1083.8 |
| 20260507103603 | 69 | 170 | 5.0 | 11.0 | 0.00 | 0.00 | 0.00 | 48 | 1084.0 |
| 20260507103503 | 69 | 179 | 5.0 | 11.0 | 0.00 | 0.00 | 0.00 | 48 | 1083.7 |
| 20260507103403 | 69 | 186 | 5.0 | 11.0 | 0.00 | 0.00 | 0.00 | 46 | 1083.7 |
| 20260507103303 | 69 | 199 | 4.0 | 11.0 | 0.00 | 0.00 | 0.00 | 47 | 1083.7 |
| 20260507103203 | 69 | 200 | 4.0 | 10.0 | 0.00 | 0.00 | 0.00 | 47 | 1083.9 |
| 20260507103103 | 69 | 204 | 4.0 | 9.0 | 0.00 | 0.00 | 0.00 | 47 | 1083.7 |
| 20260507103003 | 69 | 202 | 4.0 | 9.0 | 0.00 | 0.00 | 0.00 | 47 | 1083.8 |
| 20260507102903 | 69 | 200 | 3.0 | 9.0 | 0.00 | 0.00 | 0.00 | 49 | 1083.8 |
| 20260507102803 | 69 | 197 | 3.0 | 8.0 | 0.00 | 0.00 | 0.00 | 48 | 1083.5 |
| 20260507102717 | 69 | 204 | 3.0 | 8.0 | 0.00 | 0.00 | 0.00 | 47 | 1083.5 |
| 20260507102703 | 69 | 205 | 3.0 | 8.0 | 0.00 | 0.00 | 0.00 | 47 | 1083.7 |
| 20260507102603 | 69 | 193 | 3.0 | 7.0 | 0.00 | 0.00 | 0.00 | 48 | 1083.8 |
| 20260507102518 | 69 | 193 | 3.0 | 7.0 | 0.00 | 0.00 | 0.00 | 48 | 1083.8 |
| 20260507102403 | 69 | 191 | 3.0 | 9.0 | 0.00 | 0.00 | 0.00 | 48 | 1083.8 |
| 20260507102218 | 69 | 189 | 3.0 | 9.0 | 0.00 | 0.00 | 0.00 | 48 | 1083.8 |
| 20260507102203 | 69 | 188 | 3.0 | 9.0 | 0.00 | 0.00 | 0.00 | 48 | 1083.5 |
| 20260507102103 | 69 | 185 | 3.0 | 9.0 | 0.00 | 0.00 | 0.00 | 50 | 1083.7 |
| 20260507101903 | 68 | 196 | 3.0 | 9.0 | 0.00 | 0.00 | 0.00 | 52 | 1083.7 |
| 20260507101818 | 68 | 201 | 2.0 | 9.0 | 0.00 | 0.00 | 0.00 | 50 | 1083.7 |
| 20260507101803 | 68 | 202 | 2.0 | 9.0 | 0.00 | 0.00 | 0.00 | 50 | 1083.5 |
| 20260507101703 | 67 | 206 | 2.0 | 9.0 | 0.00 | 0.00 | 0.00 | 50 | 1083.8 |
| 20260507101503 | 67 | 218 | 2.0 | 9.0 | 0.00 | 0.00 | 0.00 | 50 | 1083.5 |
| 20260507101403 | 67 | 218 | 2.0 | 9.0 | 0.00 | 0.00 | 0.00 | 52 | 1083.6 |
| 20260507101317 | 67 | 218 | 1.0 | 6.0 | 0.00 | 0.00 | 0.00 | 52 | 1083.6 |
| 20260507101303 | 66 | 216 | 1.0 | 6.0 | 0.00 | 0.00 | 0.00 | 54 | 1083.7 |
| 20260507101203 | 66 | 213 | 1.0 | 4.0 | 0.00 | 0.00 | 0.00 | 54 | 1083.7 |
| 20260507101116 | 66 | 219 | 1.0 | 6.0 | 0.00 | 0.00 | 0.00 | 54 | 1083.7 |
| 20260507101017 | 65 | 211 | 2.0 | 7.0 | 0.00 | 0.00 | 0.00 | 54 | 1083.8 |
| 20260507101003 | 65 | 212 | 2.0 | 7.0 | 0.00 | 0.00 | 0.00 | 54 | 1083.6 |
| 20260507100703 | 65 | 210 | 3.0 | 8.0 | 0.00 | 0.00 | 0.00 | 54 | 1083.8 |
| 20260507100617 | 65 | 214 | 3.0 | 8.0 | 0.00 | 0.00 | 0.00 | 54 | 1083.8 |
| 20260507100603 | 65 | 215 | 3.0 | 8.0 | 0.00 | 0.00 | 0.00 | 54 | 1083.5 |
| 20260507100503 | 65 | 217 | 3.0 | 8.0 | 0.00 | 0.00 | 0.00 | 53 | 1083.8 |
| 20260507100303 | 65 | 221 | 4.0 | 10.0 | 0.00 | 0.00 | 0.00 | 53 | 1083.8 |
| 20260507100203 | 65 | 217 | 4.0 | 10.0 | 0.00 | 0.00 | 0.00 | 54 | 1083.9 |
| 20260507100103 | 66 | 213 | 4.0 | 10.0 | 0.00 | 0.00 | 0.00 | 53 | 1083.8 |
| 20260507100003 | 65 | 217 | 4.0 | 10.0 | 0.00 | 0.00 | 0.00 | 55 | 1083.8 |
| 20260507095917 | 65 | 221 | 4.0 | 10.0 | 0.00 | 0.00 | 0.00 | 55 | 1083.8 |
| 20260507095903 | 65 | 222 | 4.0 | 10.0 | 0.00 | 0.00 | 0.00 | 55 | 1083.4 |
| 20260507095803 | 65 | 230 | 4.0 | 10.0 | 0.00 | 0.00 | 0.00 | 54 | 1083.7 |
| 20260507095603 | 65 | 250 | 4.0 | 10.0 | 0.00 | 0.00 | 0.00 | 53 | 1083.6 |
| 20260507095503 | 65 | 254 | 4.0 | 10.0 | 0.00 | 0.00 | 0.00 | 54 | 1083.7 |
| 20260507095416 | 65 | 255 | 4.0 | 10.0 | 0.00 | 0.00 | 0.00 | 54 | 1083.7 |
| 20260507095403 | 65 | 252 | 4.0 | 10.0 | 0.00 | 0.00 | 0.00 | 54 | 1083.6 |
| 20260507095305 | 66 | 256 | 4.0 | 10.0 | 0.00 | 0.00 | 0.00 | 54 | 1084.0 |
| 20260507095103 | 66 | 268 | 4.0 | 11.0 | 0.00 | 0.00 | 0.00 | 54 | 1083.6 |
| 20260507095003 | 66 | 270 | 5.0 | 11.0 | 0.00 | 0.00 | 0.00 | 54 | 1083.7 |
| 20260507094903 | 65 | 265 | 5.0 | 11.0 | 0.00 | 0.00 | 0.00 | 55 | 1083.7 |
| 20260507094803 | 65 | 254 | 5.0 | 11.0 | 0.00 | 0.00 | 0.00 | 54 | 1083.8 |
| 20260507094716 | 65 | 240 | 5.0 | 11.0 | 0.00 | 0.00 | 0.00 | 55 | 1083.8 |
| 20260507094703 | 65 | 238 | 5.0 | 11.0 | 0.00 | 0.00 | 0.00 | 55 | 1083.7 |
| 20260507094603 | 65 | 229 | 5.0 | 11.0 | 0.00 | 0.00 | 0.00 | 55 | 1083.7 |
| 20260507094403 | 65 | 223 | 4.0 | 11.0 | 0.00 | 0.00 | 0.00 | 55 | 1083.6 |
| 20260507094303 | 65 | 222 | 4.0 | 11.0 | 0.00 | 0.00 | 0.00 | 55 | 1083.5 |
| 20260507094203 | 65 | 213 | 4.0 | 11.0 | 0.00 | 0.00 | 0.00 | 54 | 1083.7 |
| 20260507094103 | 65 | 206 | 4.0 | 11.0 | 0.00 | 0.00 | 0.00 | 55 | 1083.5 |
| 20260507094003 | 65 | 194 | 3.0 | 9.0 | 0.00 | 0.00 | 0.00 | 56 | 1083.6 |
| 20260507093903 | 65 | 198 | 3.0 | 9.0 | 0.00 | 0.00 | 0.00 | 55 | 1083.6 |
| 20260507093818 | 65 | 211 | 3.0 | 9.0 | 0.00 | 0.00 | 0.00 | 55 | 1083.6 |
| 20260507093803 | 65 | 214 | 3.0 | 9.0 | 0.00 | 0.00 | 0.00 | 55 | 1083.7 |
| 20260507093703 | 65 | 224 | 3.0 | 7.0 | 0.00 | 0.00 | 0.00 | 55 | 1083.5 |
| 20260507093503 | 64 | 218 | 3.0 | 7.0 | 0.00 | 0.00 | 0.00 | 55 | 1083.6 |
| 20260507093418 | 65 | 212 | 3.0 | 7.0 | 0.00 | 0.00 | 0.00 | 56 | 1083.6 |
| 20260507093403 | 65 | 211 | 3.0 | 7.0 | 0.00 | 0.00 | 0.00 | 56 | 1083.5 |
| 20260507093303 | 64 | 206 | 3.0 | 7.0 | 0.00 | 0.00 | 0.00 | 56 | 1083.5 |
| 20260507093217 | 64 | 210 | 3.0 | 7.0 | 0.00 | 0.00 | 0.00 | 56 | 1083.5 |
| 20260507093103 | 64 | 216 | 3.0 | 7.0 | 0.00 | 0.00 | 0.00 | 55 | 1083.8 |
| 20260507092903 | 65 | 214 | 3.0 | 7.0 | 0.00 | 0.00 | 0.00 | 55 | 1083.5 |
| 20260507092803 | 65 | 204 | 3.0 | 7.0 | 0.00 | 0.00 | 0.00 | 55 | 1083.5 |
| 20260507092703 | 65 | 195 | 3.0 | 7.0 | 0.00 | 0.00 | 0.00 | 55 | 1083.5 |
| 20260507092603 | 65 | 184 | 3.0 | 8.0 | 0.00 | 0.00 | 0.00 | 54 | 1083.6 |
| 20260507092517 | 65 | 175 | 3.0 | 8.0 | 0.00 | 0.00 | 0.00 | 54 | 1083.6 |
| 20260507092503 | 65 | 171 | 3.0 | 8.0 | 0.00 | 0.00 | 0.00 | 54 | 1083.5 |
| 20260507092403 | 66 | 158 | 3.0 | 8.0 | 0.00 | 0.00 | 0.00 | 53 | 1083.6 |
| 20260507092203 | 66 | 164 | 3.0 | 8.0 | 0.00 | 0.00 | 0.00 | 52 | 1083.5 |
| 20260507092103 | 67 | 165 | 3.0 | 8.0 | 0.00 | 0.00 | 0.00 | 52 | 1083.5 |
| 20260507092003 | 67 | 168 | 3.0 | 8.0 | 0.00 | 0.00 | 0.00 | 51 | 1083.5 |
| 20260507091903 | 67 | 165 | 4.0 | 11.0 | 0.00 | 0.00 | 0.00 | 51 | 1083.6 |
| 20260507091803 | 67 | 165 | 4.0 | 11.0 | 0.00 | 0.00 | 0.00 | 53 | 1083.4 |
| 20260507091703 | 67 | 166 | 4.0 | 11.0 | 0.00 | 0.00 | 0.00 | 54 | 1083.4 |
| 20260507091603 | 67 | 177 | 4.0 | 11.0 | 0.00 | 0.00 | 0.00 | 54 | 1083.5 |
| 20260507091503 | 66 | 188 | 4.0 | 11.0 | 0.00 | 0.00 | 0.00 | 53 | 1083.1 |
| 20260507091403 | 66 | 194 | 4.0 | 11.0 | 0.00 | 0.00 | 0.00 | 53 | 1083.5 |
| 20260507091303 | 67 | 197 | 4.0 | 11.0 | 0.00 | 0.00 | 0.00 | 50 | 1083.6 |
| 20260507091203 | 67 | 205 | 4.0 | 11.0 | 0.00 | 0.00 | 0.00 | 51 | 1083.5 |
| 20260507091103 | 67 | 210 | 4.0 | 11.0 | 0.00 | 0.00 | 0.00 | 50 | 1083.5 |
| 20260507091003 | 68 | 215 | 4.0 | 11.0 | 0.00 | 0.00 | 0.00 | 50 | 1083.5 |
| 20260507090903 | 68 | 232 | 4.0 | 10.0 | 0.00 | 0.00 | 0.00 | 52 | 1083.4 |
| 20260507090803 | 67 | 237 | 4.0 | 10.0 | 0.00 | 0.00 | 0.00 | 52 | 1083.5 |
| 20260507090703 | 67 | 236 | 4.0 | 10.0 | 0.00 | 0.00 | 0.00 | 52 | 1083.3 |
| 20260507090617 | 67 | 236 | 4.0 | 10.0 | 0.00 | 0.00 | 0.00 | 53 | 1083.3 |
| 20260507090603 | 67 | 236 | 4.0 | 10.0 | 0.00 | 0.00 | 0.00 | 53 | 1083.5 |
| 20260507090517 | 67 | 237 | 3.0 | 10.0 | 0.00 | 0.00 | 0.00 | 53 | 1083.5 |
| 20260507090503 | 67 | 237 | 4.0 | 10.0 | 0.00 | 0.00 | 0.00 | 53 | 1083.3 |
| 20260507090203 | 67 | 239 | 4.0 | 10.0 | 0.00 | 0.00 | 0.00 | 53 | 1083.5 |
| 20260507090003 | 67 | 218 | 4.0 | 10.0 | 0.00 | 0.00 | 0.00 | 54 | 1083.3 |
| 20260507085903 | 67 | 198 | 4.0 | 10.0 | 0.00 | 0.00 | 0.00 | 55 | 1083.2 |
| 20260507085803 | 67 | 187 | 4.0 | 10.0 | 0.00 | 0.00 | 0.00 | 54 | 1083.3 |
| 20260507085703 | 67 | 189 | 4.0 | 10.0 | 0.00 | 0.00 | 0.00 | 54 | 1083.5 |
| 20260507085617 | 67 | 184 | 3.0 | 10.0 | 0.00 | 0.00 | 0.00 | 53 | 1083.5 |
| 20260507085603 | 67 | 186 | 4.0 | 10.0 | 0.00 | 0.00 | 0.00 | 53 | 1083.4 |
| 20260507085503 | 67 | 173 | 4.0 | 10.0 | 0.00 | 0.00 | 0.00 | 53 | 1083.4 |
| 20260507085306 | 66 | 161 | 4.0 | 10.0 | 0.00 | 0.00 | 0.00 | 57 | 1083.3 |
| 20260507085203 | 65 | 165 | 4.0 | 10.0 | 0.00 | 0.00 | 0.00 | 58 | 1083.2 |
| 20260507085103 | 65 | 172 | 4.0 | 10.0 | 0.00 | 0.00 | 0.00 | 58 | 1083.3 |
| 20260507085003 | 65 | 178 | 4.0 | 9.0 | 0.00 | 0.00 | 0.00 | 58 | 1083.4 |
| 20260507084903 | 64 | 186 | 4.0 | 10.0 | 0.00 | 0.00 | 0.00 | 57 | 1083.2 |
| 20260507084803 | 64 | 187 | 4.0 | 10.0 | 0.00 | 0.00 | 0.00 | 57 | 1083.2 |
| 20260507084703 | 65 | 188 | 4.0 | 10.0 | 0.00 | 0.00 | 0.00 | 56 | 1083.2 |
| 20260507084603 | 65 | 197 | 4.0 | 10.0 | 0.00 | 0.00 | 0.00 | 56 | 1083.5 |
| 20260507084503 | 65 | 207 | 4.0 | 10.0 | 0.00 | 0.00 | 0.00 | 56 | 1083.2 |
| 20260507084403 | 65 | 210 | 4.0 | 10.0 | 0.00 | 0.00 | 0.00 | 55 | 1083.4 |
| 20260507084303 | 65 | 217 | 4.0 | 10.0 | 0.00 | 0.00 | 0.00 | 56 | 1083.3 |
| 20260507084203 | 65 | 219 | 3.0 | 10.0 | 0.00 | 0.00 | 0.00 | 56 | 1083.3 |
| 20260507084103 | 65 | 221 | 3.0 | 10.0 | 0.00 | 0.00 | 0.00 | 57 | 1083.3 |
| 20260507084003 | 65 | 235 | 3.0 | 10.0 | 0.00 | 0.00 | 0.00 | 58 | 1083.4 |
| 20260507083917 | 65 | 238 | 3.0 | 9.0 | 0.00 | 0.00 | 0.00 | 58 | 1083.4 |
| 20260507083903 | 65 | 239 | 3.0 | 9.0 | 0.00 | 0.00 | 0.00 | 58 | 1083.0 |
| 20260507083803 | 64 | 250 | 3.0 | 9.0 | 0.00 | 0.00 | 0.00 | 59 | 1083.1 |
| 20260507083617 | 64 | 252 | 3.0 | 11.0 | 0.00 | 0.00 | 0.00 | 60 | 1083.2 |
| 20260507083603 | 64 | 252 | 3.0 | 11.0 | 0.00 | 0.00 | 0.00 | 60 | 1083.4 |
| 20260507083503 | 64 | 250 | 3.0 | 11.0 | 0.00 | 0.00 | 0.00 | 58 | 1083.1 |
| 20260507083303 | 64 | 241 | 4.0 | 11.0 | 0.00 | 0.00 | 0.00 | 60 | 1083.2 |
| 20260507083203 | 64 | 240 | 4.0 | 11.0 | 0.00 | 0.00 | 0.00 | 59 | 1083.3 |
| 20260507083118 | 64 | 238 | 4.0 | 11.0 | 0.00 | 0.00 | 0.00 | 58 | 1083.3 |
| 20260507083103 | 64 | 238 | 4.0 | 11.0 | 0.00 | 0.00 | 0.00 | 58 | 1083.1 |
| 20260507083003 | 64 | 236 | 4.0 | 11.0 | 0.00 | 0.00 | 0.00 | 59 | 1083.0 |
| 20260507082803 | 64 | 239 | 4.0 | 11.0 | 0.00 | 0.00 | 0.00 | 59 | 1083.1 |
| 20260507082703 | 64 | 234 | 4.0 | 10.0 | 0.00 | 0.00 | 0.00 | 59 | 1083.0 |
| 20260507082616 | 63 | 233 | 4.0 | 9.0 | 0.00 | 0.00 | 0.00 | 61 | 1083.0 |
| 20260507082603 | 63 | 232 | 4.0 | 9.0 | 0.00 | 0.00 | 0.00 | 61 | 1083.0 |
| 20260507082503 | 63 | 234 | 4.0 | 9.0 | 0.00 | 0.00 | 0.00 | 62 | 1083.0 |
| 20260507082306 | 62 | 238 | 4.0 | 10.0 | 0.00 | 0.00 | 0.00 | 63 | 1083.1 |
| 20260507082203 | 62 | 236 | 4.0 | 10.0 | 0.00 | 0.00 | 0.00 | 63 | 1083.2 |
| 20260507082103 | 61 | 237 | 4.0 | 10.0 | 0.00 | 0.00 | 0.00 | 63 | 1083.0 |
| 20260507082003 | 61 | 243 | 4.0 | 10.0 | 0.00 | 0.00 | 0.00 | 62 | 1083.0 |
| 20260507081917 | 62 | 244 | 4.0 | 10.0 | 0.00 | 0.00 | 0.00 | 62 | 1083.0 |
| 20260507081903 | 62 | 243 | 4.0 | 10.0 | 0.00 | 0.00 | 0.00 | 62 | 1083.2 |
| 20260507081803 | 62 | 242 | 4.0 | 10.0 | 0.00 | 0.00 | 0.00 | 62 | 1083.0 |
| 20260507081718 | 62 | 243 | 4.0 | 10.0 | 0.00 | 0.00 | 0.00 | 62 | 1083.0 |
| 20260507081603 | 62 | 245 | 4.0 | 10.0 | 0.00 | 0.00 | 0.00 | 62 | 1083.0 |
| 20260507081418 | 62 | 230 | 3.0 | 8.0 | 0.00 | 0.00 | 0.00 | 63 | 1082.8 |
| 20260507081403 | 62 | 228 | 3.0 | 8.0 | 0.00 | 0.00 | 0.00 | 63 | 1082.7 |
| 20260507081303 | 62 | 229 | 3.0 | 8.0 | 0.00 | 0.00 | 0.00 | 63 | 1083.0 |
| 20260507081117 | 61 | 234 | 3.0 | 8.0 | 0.00 | 0.00 | 0.00 | 64 | 1083.0 |
| 20260507081103 | 61 | 234 | 3.0 | 8.0 | 0.00 | 0.00 | 0.00 | 64 | 1082.8 |
| 20260507081003 | 60 | 221 | 3.0 | 8.0 | 0.00 | 0.00 | 0.00 | 65 | 1083.1 |
| 20260507080803 | 60 | 211 | 3.0 | 8.0 | 0.00 | 0.00 | 0.00 | 65 | 1083.0 |
| 20260507080703 | 60 | 211 | 3.0 | 8.0 | 0.00 | 0.00 | 0.00 | 64 | 1083.0 |
| 20260507080616 | 60 | 206 | 3.0 | 8.0 | 0.00 | 0.00 | 0.00 | 64 | 1083.0 |
| 20260507080603 | 60 | 205 | 3.0 | 8.0 | 0.00 | 0.00 | 0.00 | 65 | 1083.2 |
| 20260507080517 | 60 | 202 | 3.0 | 8.0 | 0.00 | 0.00 | 0.00 | 65 | 1083.2 |
| 20260507080503 | 60 | 203 | 3.0 | 8.0 | 0.00 | 0.00 | 0.00 | 65 | 1083.2 |
| 20260507080203 | 60 | 212 | 3.0 | 7.0 | 0.00 | 0.00 | 0.00 | 65 | 1082.7 |
| 20260507080103 | 60 | 213 | 3.0 | 7.0 | 0.00 | 0.00 | 0.00 | 66 | 1083.0 |
| 20260507080003 | 60 | 220 | 3.0 | 7.0 | 0.00 | 0.00 | 0.00 | 65 | 1082.8 |
| 20260507075916 | 60 | 221 | 3.0 | 7.0 | 0.00 | 0.00 | 0.00 | 65 | 1082.8 |
| 20260507075903 | 60 | 220 | 3.0 | 7.0 | 0.00 | 0.00 | 0.00 | 65 | 1083.1 |
| 20260507075803 | 60 | 217 | 3.0 | 8.0 | 0.00 | 0.00 | 0.00 | 64 | 1083.0 |
| 20260507075616 | 60 | 204 | 3.0 | 8.0 | 0.00 | 0.00 | 0.00 | 64 | 1083.0 |
| 20260507075603 | 60 | 204 | 3.0 | 8.0 | 0.00 | 0.00 | 0.00 | 64 | 1082.8 |
| 20260507075517 | 60 | 203 | 4.0 | 9.0 | 0.00 | 0.00 | 0.00 | 63 | 1082.8 |
| 20260507075503 | 60 | 203 | 4.0 | 9.0 | 0.00 | 0.00 | 0.00 | 63 | 1083.0 |
| 20260507075203 | 61 | 197 | 3.0 | 9.0 | 0.00 | 0.00 | 0.00 | 63 | 1083.1 |
| 20260507075103 | 62 | 194 | 3.0 | 9.0 | 0.00 | 0.00 | 0.00 | 63 | 1082.8 |
| 20260507075003 | 62 | 186 | 3.0 | 9.0 | 0.00 | 0.00 | 0.00 | 63 | 1082.7 |
| 20260507074916 | 62 | 186 | 3.0 | 9.0 | 0.00 | 0.00 | 0.00 | 62 | 1082.7 |
| 20260507074903 | 62 | 186 | 3.0 | 9.0 | 0.00 | 0.00 | 0.00 | 62 | 1082.8 |
| 20260507074803 | 62 | 187 | 2.0 | 9.0 | 0.00 | 0.00 | 0.00 | 61 | 1082.7 |
| 20260507074718 | 62 | 188 | 2.0 | 9.0 | 0.00 | 0.00 | 0.00 | 61 | 1082.7 |
| 20260507074603 | 63 | 195 | 2.0 | 9.0 | 0.00 | 0.00 | 0.00 | 62 | 1083.0 |
| 20260507074403 | 63 | 181 | 2.0 | 7.0 | 0.00 | 0.00 | 0.00 | 63 | 1082.8 |
| 20260507074303 | 63 | 197 | 2.0 | 8.0 | 0.00 | 0.00 | 0.00 | 62 | 1082.7 |
| 20260507074216 | 63 | 198 | 2.0 | 8.0 | 0.00 | 0.00 | 0.00 | 62 | 1082.7 |
| 20260507074203 | 63 | 196 | 2.0 | 8.0 | 0.00 | 0.00 | 0.00 | 62 | 1082.6 |
| 20260507074103 | 63 | 193 | 3.0 | 10.0 | 0.00 | 0.00 | 0.00 | 62 | 1082.7 |
| 20260507074018 | 62 | 192 | 4.0 | 11.0 | 0.00 | 0.00 | 0.00 | 63 | 1082.7 |
| 20260507073903 | 62 | 197 | 4.0 | 11.0 | 0.00 | 0.00 | 0.00 | 63 | 1082.5 |
| 20260507073703 | 63 | 203 | 4.0 | 11.0 | 0.00 | 0.00 | 0.00 | 62 | 1082.8 |
| 20260507073616 | 63 | 203 | 4.0 | 11.0 | 0.00 | 0.00 | 0.00 | 61 | 1082.8 |
| 20260507073603 | 63 | 202 | 4.0 | 11.0 | 0.00 | 0.00 | 0.00 | 61 | 1082.8 |
| 20260507073503 | 63 | 203 | 4.0 | 11.0 | 0.00 | 0.00 | 0.00 | 61 | 1082.5 |
| 20260507073303 | 64 | 201 | 4.0 | 11.0 | 0.00 | 0.00 | 0.00 | 61 | 1082.8 |
| 20260507073216 | 64 | 202 | 4.0 | 11.0 | 0.00 | 0.00 | 0.00 | 61 | 1082.8 |
| 20260507073203 | 64 | 202 | 4.0 | 11.0 | 0.00 | 0.00 | 0.00 | 61 | 1082.5 |
| 20260507073103 | 64 | 207 | 4.0 | 11.0 | 0.00 | 0.00 | 0.00 | 61 | 1082.7 |
| 20260507072903 | 63 | 207 | 3.0 | 8.0 | 0.00 | 0.00 | 0.00 | 64 | 1082.6 |
| 20260507072817 | 62 | 204 | 3.0 | 9.0 | 0.00 | 0.00 | 0.00 | 64 | 1082.6 |
| 20260507072803 | 62 | 203 | 3.0 | 9.0 | 0.00 | 0.00 | 0.00 | 64 | 1082.6 |
| 20260507072703 | 62 | 204 | 3.0 | 9.0 | 0.00 | 0.00 | 0.00 | 63 | 1082.6 |
| 20260507072503 | 62 | 212 | 3.0 | 9.0 | 0.00 | 0.00 | 0.00 | 65 | 1083.0 |
| 20260507072403 | 62 | 215 | 3.0 | 9.0 | 0.00 | 0.00 | 0.00 | 64 | 1082.7 |
| 20260507072306 | 62 | 220 | 3.0 | 9.0 | 0.00 | 0.00 | 0.00 | 64 | 1082.7 |
| 20260507072203 | 62 | 221 | 3.0 | 9.0 | 0.00 | 0.00 | 0.00 | 64 | 1082.8 |
| 20260507072103 | 62 | 215 | 3.0 | 9.0 | 0.00 | 0.00 | 0.00 | 65 | 1082.7 |
| 20260507072003 | 62 | 216 | 3.0 | 9.0 | 0.00 | 0.00 | 0.00 | 65 | 1082.7 |
| 20260507071903 | 61 | 214 | 3.0 | 9.0 | 0.00 | 0.00 | 0.00 | 66 | 1082.7 |
| 20260507071803 | 61 | 220 | 3.0 | 9.0 | 0.00 | 0.00 | 0.00 | 67 | 1082.4 |
| 20260507071717 | 61 | 220 | 3.0 | 9.0 | 0.00 | 0.00 | 0.00 | 67 | 1082.4 |
| 20260507071703 | 61 | 218 | 3.0 | 9.0 | 0.00 | 0.00 | 0.00 | 67 | 1082.6 |
| 20260507071603 | 60 | 206 | 4.0 | 9.0 | 0.00 | 0.00 | 0.00 | 68 | 1082.5 |
| 20260507071403 | 60 | 199 | 4.0 | 9.0 | 0.00 | 0.00 | 0.00 | 68 | 1082.5 |
| 20260507071303 | 60 | 197 | 4.0 | 9.0 | 0.00 | 0.00 | 0.00 | 68 | 1082.4 |
| 20260507071216 | 60 | 195 | 4.0 | 9.0 | 0.00 | 0.00 | 0.00 | 68 | 1082.4 |
| 20260507071203 | 60 | 195 | 4.0 | 9.0 | 0.00 | 0.00 | 0.00 | 68 | 1082.4 |
| 20260507071117 | 60 | 196 | 4.0 | 9.0 | 0.00 | 0.00 | 0.00 | 68 | 1082.4 |
| 20260507071103 | 60 | 198 | 4.0 | 9.0 | 0.00 | 0.00 | 0.00 | 68 | 1082.4 |
| 20260507070803 | 60 | 208 | 4.0 | 10.0 | 0.00 | 0.00 | 0.00 | 67 | 1082.6 |
| 20260507070703 | 60 | 202 | 4.0 | 10.0 | 0.00 | 0.00 | 0.00 | 68 | 1082.6 |
| 20260507070603 | 61 | 207 | 4.0 | 10.0 | 0.00 | 0.00 | 0.00 | 67 | 1082.5 |
| 20260507070503 | 61 | 204 | 4.0 | 10.0 | 0.00 | 0.00 | 0.00 | 68 | 1082.4 |
| 20260507070403 | 60 | 205 | 4.0 | 10.0 | 0.00 | 0.00 | 0.00 | 68 | 1082.2 |
| 20260507070303 | 60 | 200 | 4.0 | 10.0 | 0.00 | 0.00 | 0.00 | 69 | 1082.3 |
| 20260507070203 | 60 | 203 | 4.0 | 10.0 | 0.00 | 0.00 | 0.00 | 70 | 1082.2 |
| 20260507070018 | 60 | 200 | 5.0 | 10.0 | 0.00 | 0.00 | 0.00 | 69 | 1082.3 |
| 20260507070005 | 60 | 199 | 5.0 | 10.0 | 0.00 | 0.00 | 0.00 | 69 | 1082.3 |
| 20260507065916 | 59 | 196 | 5.0 | 10.0 | 0.00 | 0.00 | 0.00 | 70 | 1082.3 |
| 20260507065903 | 59 | 193 | 5.0 | 10.0 | 0.00 | 0.00 | 0.00 | 70 | 1082.3 |
| 20260507065603 | 59 | 200 | 4.0 | 9.0 | 0.00 | 0.00 | 0.00 | 72 | 1082.7 |
| 20260507065503 | 58 | 202 | 5.0 | 9.0 | 0.00 | 0.00 | 0.00 | 72 | 1082.3 |
| 20260507065403 | 58 | 201 | 5.0 | 9.0 | 0.00 | 0.00 | 0.00 | 72 | 1082.3 |
| 20260507065306 | 58 | 205 | 4.0 | 9.0 | 0.00 | 0.00 | 0.00 | 72 | 1082.3 |
| 20260507065203 | 58 | 204 | 4.0 | 9.0 | 0.00 | 0.00 | 0.00 | 72 | 1082.4 |
| 20260507065103 | 58 | 205 | 4.0 | 9.0 | 0.00 | 0.00 | 0.00 | 73 | 1082.4 |
| 20260507065003 | 58 | 210 | 4.0 | 9.0 | 0.00 | 0.00 | 0.00 | 73 | 1082.5 |
| 20260507064903 | 58 | 215 | 4.0 | 9.0 | 0.00 | 0.00 | 0.00 | 73 | 1082.6 |
| 20260507064803 | 58 | 216 | 3.0 | 9.0 | 0.00 | 0.00 | 0.00 | 73 | 1082.5 |
| 20260507064703 | 58 | 216 | 3.0 | 9.0 | 0.00 | 0.00 | 0.00 | 73 | 1082.5 |
| 20260507064603 | 58 | 219 | 3.0 | 9.0 | 0.00 | 0.00 | 0.00 | 73 | 1082.5 |
| 20260507064503 | 58 | 217 | 3.0 | 9.0 | 0.00 | 0.00 | 0.00 | 73 | 1082.4 |
| 20260507064403 | 58 | 218 | 3.0 | 9.0 | 0.00 | 0.00 | 0.00 | 73 | 1082.3 |
| 20260507064318 | 58 | 221 | 3.0 | 9.0 | 0.00 | 0.00 | 0.00 | 73 | 1082.3 |
| 20260507064303 | 58 | 222 | 3.0 | 9.0 | 0.00 | 0.00 | 0.00 | 73 | 1082.4 |
| 20260507064216 | 58 | 225 | 3.0 | 9.0 | 0.00 | 0.00 | 0.00 | 73 | 1082.4 |
| 20260507064203 | 58 | 224 | 3.0 | 9.0 | 0.00 | 0.00 | 0.00 | 73 | 1082.4 |
| 20260507063903 | 58 | 221 | 3.0 | 9.0 | 0.00 | 0.00 | 0.00 | 74 | 1082.7 |
| 20260507063817 | 58 | 218 | 3.0 | 9.0 | 0.00 | 0.00 | 0.00 | 74 | 1082.7 |
| 20260507063803 | 58 | 216 | 4.0 | 9.0 | 0.00 | 0.00 | 0.00 | 74 | 1082.4 |
| 20260507063703 | 58 | 213 | 4.0 | 9.0 | 0.00 | 0.00 | 0.00 | 74 | 1082.4 |
| 20260507063503 | 58 | 216 | 3.0 | 9.0 | 0.00 | 0.00 | 0.00 | 73 | 1082.5 |
| 20260507063403 | 58 | 222 | 3.0 | 9.0 | 0.00 | 0.00 | 0.00 | 73 | 1082.6 |
| 20260507063303 | 58 | 226 | 3.0 | 9.0 | 0.00 | 0.00 | 0.00 | 74 | 1082.3 |
| 20260507063203 | 58 | 223 | 3.0 | 9.0 | 0.00 | 0.00 | 0.00 | 74 | 1082.4 |
| 20260507063103 | 58 | 224 | 3.0 | 9.0 | 0.00 | 0.00 | 0.00 | 73 | 1082.3 |
| 20260507063003 | 58 | 220 | 3.0 | 9.0 | 0.00 | 0.00 | 0.00 | 73 | 1082.2 |
| 20260507062903 | 58 | 211 | 3.0 | 9.0 | 0.00 | 0.00 | 0.00 | 74 | 1082.2 |
| 20260507062803 | 58 | 211 | 3.0 | 9.0 | 0.00 | 0.00 | 0.00 | 74 | 1082.2 |
| 20260507062703 | 58 | 209 | 3.0 | 9.0 | 0.00 | 0.00 | 0.00 | 75 | 1082.2 |
| 20260507062603 | 58 | 210 | 3.0 | 9.0 | 0.00 | 0.00 | 0.00 | 75 | 1082.0 |
| 20260507062503 | 58 | 213 | 3.0 | 9.0 | 0.00 | 0.00 | 0.00 | 75 | 1082.1 |
| 20260507062403 | 58 | 211 | 4.0 | 9.0 | 0.00 | 0.00 | 0.00 | 75 | 1082.1 |
| 20260507062318 | 58 | 209 | 3.0 | 9.0 | 0.00 | 0.00 | 0.00 | 75 | 1082.1 |
| 20260507062306 | 58 | 208 | 3.0 | 9.0 | 0.00 | 0.00 | 0.00 | 75 | 1082.1 |
| 20260507062203 | 58 | 212 | 3.0 | 9.0 | 0.00 | 0.00 | 0.00 | 75 | 1082.1 |
| 20260507062017 | 58 | 219 | 4.0 | 9.0 | 0.00 | 0.00 | 0.00 | 75 | 1082.1 |
| 20260507062003 | 58 | 220 | 4.0 | 9.0 | 0.00 | 0.00 | 0.00 | 75 | 1082.0 |
| 20260507061903 | 58 | 230 | 4.0 | 9.0 | 0.00 | 0.00 | 0.00 | 75 | 1082.0 |
| 20260507061703 | 58 | 245 | 3.0 | 9.0 | 0.00 | 0.00 | 0.00 | 75 | 1081.9 |
| 20260507061618 | 58 | 249 | 4.0 | 10.0 | 0.00 | 0.00 | 0.00 | 75 | 1081.9 |
| 20260507061603 | 58 | 249 | 4.0 | 10.0 | 0.00 | 0.00 | 0.00 | 75 | 1082.1 |
| 20260507061503 | 58 | 251 | 3.0 | 10.0 | 0.00 | 0.00 | 0.00 | 76 | 1082.1 |
| 20260507061303 | 58 | 248 | 3.0 | 10.0 | 0.00 | 0.00 | 0.00 | 76 | 1082.0 |
| 20260507061203 | 57 | 241 | 3.0 | 10.0 | 0.00 | 0.00 | 0.00 | 76 | 1082.0 |
| 20260507061103 | 57 | 239 | 3.0 | 10.0 | 0.00 | 0.00 | 0.00 | 76 | 1082.1 |
| 20260507061003 | 57 | 236 | 3.0 | 10.0 | 0.00 | 0.00 | 0.00 | 76 | 1081.8 |
| 20260507060903 | 57 | 225 | 3.0 | 10.0 | 0.00 | 0.00 | 0.00 | 76 | 1082.0 |
| 20260507060803 | 57 | 224 | 3.0 | 10.0 | 0.00 | 0.00 | 0.00 | 76 | 1082.1 |
| 20260507060703 | 57 | 216 | 2.0 | 10.0 | 0.00 | 0.00 | 0.00 | 77 | 1082.0 |
| 20260507060603 | 57 | 206 | 2.0 | 6.0 | 0.00 | 0.00 | 0.00 | 78 | 1081.9 |
| 20260507060503 | 57 | 200 | 2.0 | 6.0 | 0.00 | 0.00 | 0.00 | 78 | 1081.8 |
| 20260507060403 | 57 | 204 | 2.0 | 7.0 | 0.00 | 0.00 | 0.00 | 79 | 1081.9 |
| 20260507060303 | 57 | 208 | 2.0 | 7.0 | 0.00 | 0.00 | 0.00 | 79 | 1081.9 |
| 20260507060203 | 56 | 210 | 2.0 | 7.0 | 0.00 | 0.00 | 0.00 | 80 | 1082.1 |
| 20260507060117 | 56 | 211 | 2.0 | 7.0 | 0.00 | 0.00 | 0.00 | 80 | 1082.1 |
| 20260507060003 | 56 | 211 | 2.0 | 7.0 | 0.00 | 0.00 | 0.00 | 80 | 1081.9 |
| 20260507055803 | 56 | 212 | 2.0 | 7.0 | 0.00 | 0.00 | 0.00 | 80 | 1081.9 |
| 20260507055703 | 56 | 211 | 2.0 | 7.0 | 0.00 | 0.00 | 0.00 | 79 | 1081.9 |
| 20260507055603 | 56 | 211 | 2.0 | 7.0 | 0.00 | 0.00 | 0.00 | 79 | 1081.9 |
| 20260507055503 | 56 | 215 | 2.0 | 7.0 | 0.00 | 0.00 | 0.00 | 79 | 1082.1 |
| 20260507055403 | 56 | 215 | 3.0 | 7.0 | 0.00 | 0.00 | 0.00 | 80 | 1082.0 |
| 20260507055305 | 56 | 215 | 3.0 | 7.0 | 0.00 | 0.00 | 0.00 | 80 | 1082.0 |
| 20260507055218 | 56 | 214 | 3.0 | 7.0 | 0.00 | 0.00 | 0.00 | 80 | 1082.0 |
| 20260507055203 | 56 | 215 | 3.0 | 7.0 | 0.00 | 0.00 | 0.00 | 80 | 1082.0 |
| 20260507055103 | 56 | 218 | 3.0 | 7.0 | 0.00 | 0.00 | 0.00 | 81 | 1082.0 |
| 20260507054903 | 56 | 222 | 2.0 | 7.0 | 0.00 | 0.00 | 0.00 | 81 | 1082.1 |
| 20260507054803 | 56 | 222 | 2.0 | 7.0 | 0.00 | 0.00 | 0.00 | 81 | 1081.8 |
| 20260507054703 | 56 | 227 | 2.0 | 7.0 | 0.00 | 0.00 | 0.00 | 81 | 1082.0 |
| 20260507054603 | 56 | 227 | 2.0 | 7.0 | 0.00 | 0.00 | 0.00 | 81 | 1081.9 |
| 20260507054503 | 56 | 230 | 2.0 | 7.0 | 0.00 | 0.00 | 0.00 | 82 | 1081.9 |
| 20260507054403 | 56 | 231 | 1.0 | 7.0 | 0.00 | 0.00 | 0.00 | 82 | 1081.7 |
| 20260507054303 | 55 | 227 | 1.0 | 4.0 | 0.00 | 0.00 | 0.00 | 82 | 1081.8 |
| 20260507054203 | 55 | 224 | 1.0 | 4.0 | 0.00 | 0.00 | 0.00 | 82 | 1081.6 |
| 20260507054103 | 55 | 219 | 2.0 | 4.0 | 0.00 | 0.00 | 0.00 | 82 | 1081.7 |
| 20260507054003 | 55 | 219 | 2.0 | 6.0 | 0.00 | 0.00 | 0.00 | 82 | 1081.9 |
| 20260507053903 | 55 | 219 | 2.0 | 6.0 | 0.00 | 0.00 | 0.00 | 82 | 1081.9 |
| 20260507053803 | 55 | 214 | 2.0 | 6.0 | 0.00 | 0.00 | 0.00 | 82 | 1081.8 |
| 20260507053703 | 55 | 209 | 2.0 | 6.0 | 0.00 | 0.00 | 0.00 | 82 | 1081.9 |
| 20260507053618 | 55 | 210 | 2.0 | 6.0 | 0.00 | 0.00 | 0.00 | 82 | 1081.9 |
| 20260507053603 | 55 | 212 | 2.0 | 6.0 | 0.00 | 0.00 | 0.00 | 82 | 1081.5 |
| 20260507053503 | 55 | 211 | 2.0 | 6.0 | 0.00 | 0.00 | 0.00 | 82 | 1081.6 |
| 20260507053303 | 55 | 206 | 2.0 | 6.0 | 0.00 | 0.00 | 0.00 | 82 | 1081.7 |
| 20260507053203 | 55 | 200 | 2.0 | 7.0 | 0.00 | 0.00 | 0.00 | 82 | 1081.6 |
| 20260507053103 | 55 | 202 | 2.0 | 7.0 | 0.00 | 0.00 | 0.00 | 82 | 1081.7 |
| 20260507053017 | 55 | 199 | 2.0 | 7.0 | 0.00 | 0.00 | 0.00 | 82 | 1081.7 |
| 20260507053003 | 55 | 198 | 3.0 | 7.0 | 0.00 | 0.00 | 0.00 | 82 | 1081.7 |
| 20260507052917 | 55 | 196 | 3.0 | 7.0 | 0.00 | 0.00 | 0.00 | 82 | 1081.7 |
| 20260507052903 | 55 | 196 | 3.0 | 7.0 | 0.00 | 0.00 | 0.00 | 82 | 1081.8 |
| 20260507052717 | 55 | 201 | 3.0 | 7.0 | 0.00 | 0.00 | 0.00 | 82 | 1081.9 |
| 20260507052603 | 56 | 203 | 3.0 | 7.0 | 0.00 | 0.00 | 0.00 | 82 | 1081.8 |
| 20260507052417 | 56 | 203 | 3.0 | 7.0 | 0.00 | 0.00 | 0.00 | 82 | 1081.5 |
| 20260507052403 | 56 | 203 | 3.0 | 7.0 | 0.00 | 0.00 | 0.00 | 82 | 1081.5 |
| 20260507052306 | 56 | 205 | 3.0 | 7.0 | 0.00 | 0.00 | 0.00 | 81 | 1081.7 |
| 20260507052103 | 56 | 206 | 2.0 | 7.0 | 0.00 | 0.00 | 0.00 | 81 | 1081.4 |
| 20260507052003 | 56 | 208 | 2.0 | 7.0 | 0.00 | 0.00 | 0.00 | 81 | 1081.5 |
| 20260507051903 | 56 | 208 | 2.0 | 7.0 | 0.00 | 0.00 | 0.00 | 81 | 1081.7 |
| 20260507051803 | 56 | 208 | 2.0 | 7.0 | 0.00 | 0.00 | 0.00 | 81 | 1081.5 |
| 20260507051703 | 56 | 208 | 2.0 | 7.0 | 0.00 | 0.00 | 0.00 | 81 | 1081.3 |
| 20260507051603 | 56 | 209 | 2.0 | 7.0 | 0.00 | 0.00 | 0.00 | 81 | 1081.5 |
| 20260507051503 | 56 | 208 | 2.0 | 7.0 | 0.00 | 0.00 | 0.00 | 81 | 1081.5 |
| 20260507051417 | 56 | 213 | 2.0 | 7.0 | 0.00 | 0.00 | 0.00 | 81 | 1081.5 |
| 20260507051403 | 56 | 215 | 2.0 | 7.0 | 0.00 | 0.00 | 0.00 | 81 | 1081.6 |
| 20260507051303 | 56 | 218 | 2.0 | 4.0 | 0.00 | 0.00 | 0.00 | 81 | 1081.6 |
| 20260507051103 | 56 | 224 | 2.0 | 6.0 | 0.00 | 0.00 | 0.00 | 81 | 1081.6 |
| 20260507051003 | 56 | 225 | 2.0 | 6.0 | 0.00 | 0.00 | 0.00 | 81 | 1081.3 |
| 20260507050903 | 56 | 232 | 2.0 | 6.0 | 0.00 | 0.00 | 0.00 | 81 | 1081.4 |
| 20260507050803 | 56 | 238 | 2.0 | 6.0 | 0.00 | 0.00 | 0.00 | 81 | 1081.5 |
| 20260507050703 | 56 | 244 | 2.0 | 6.0 | 0.00 | 0.00 | 0.00 | 81 | 1081.4 |
| 20260507050603 | 56 | 239 | 2.0 | 6.0 | 0.00 | 0.00 | 0.00 | 81 | 1081.5 |
| 20260507050503 | 56 | 236 | 2.0 | 6.0 | 0.00 | 0.00 | 0.00 | 81 | 1081.3 |
| 20260507050403 | 56 | 231 | 3.0 | 6.0 | 0.00 | 0.00 | 0.00 | 81 | 1081.2 |
| 20260507050303 | 56 | 230 | 3.0 | 6.0 | 0.00 | 0.00 | 0.00 | 81 | 1081.5 |
| 20260507050203 | 56 | 233 | 3.0 | 7.0 | 0.00 | 0.00 | 0.00 | 81 | 1081.6 |
| 20260507050103 | 56 | 235 | 3.0 | 8.0 | 0.00 | 0.00 | 0.00 | 81 | 1081.3 |
| 20260507050017 | 56 | 235 | 3.0 | 8.0 | 0.00 | 0.00 | 0.00 | 81 | 1081.3 |
| 20260507050003 | 56 | 235 | 3.0 | 8.0 | 0.00 | 0.00 | 0.00 | 80 | 1081.6 |
| 20260507045917 | 56 | 235 | 3.0 | 8.0 | 0.00 | 0.00 | 0.00 | 80 | 1081.6 |
| 20260507045903 | 56 | 235 | 3.0 | 8.0 | 0.00 | 0.00 | 0.00 | 80 | 1081.2 |
| 20260507045617 | 57 | 228 | 2.0 | 8.0 | 0.00 | 0.00 | 0.00 | 80 | 1081.5 |
| 20260507045603 | 57 | 227 | 2.0 | 8.0 | 0.00 | 0.00 | 0.00 | 80 | 1081.4 |
| 20260507045503 | 57 | 227 | 2.0 | 8.0 | 0.00 | 0.00 | 0.00 | 80 | 1081.5 |
| 20260507045306 | 57 | 219 | 2.0 | 8.0 | 0.00 | 0.00 | 0.00 | 80 | 1081.4 |
| 20260507045203 | 57 | 215 | 2.0 | 8.0 | 0.00 | 0.00 | 0.00 | 80 | 1081.3 |
| 20260507045103 | 57 | 212 | 1.0 | 3.0 | 0.00 | 0.00 | 0.00 | 81 | 1081.3 |
| 20260507045003 | 57 | 215 | 1.0 | 3.0 | 0.00 | 0.00 | 0.00 | 81 | 1081.3 |
| 20260507044903 | 57 | 216 | 1.0 | 3.0 | 0.00 | 0.00 | 0.00 | 81 | 1081.3 |
| 20260507044803 | 57 | 206 | 1.0 | 3.0 | 0.00 | 0.00 | 0.00 | 82 | 1081.3 |
| 20260507044703 | 57 | 204 | 1.0 | 3.0 | 0.00 | 0.00 | 0.00 | 83 | 1081.2 |
| 20260507044603 | 57 | 212 | 1.0 | 3.0 | 0.00 | 0.00 | 0.00 | 83 | 1081.2 |
| 20260507044503 | 57 | 215 | 1.0 | 3.0 | 0.00 | 0.00 | 0.00 | 83 | 1081.4 |
| 20260507044403 | 57 | 221 | 1.0 | 3.0 | 0.00 | 0.00 | 0.00 | 84 | 1081.3 |
| 20260507044303 | 56 | 223 | 1.0 | 3.0 | 0.00 | 0.00 | 0.00 | 84 | 1081.3 |
| 20260507044217 | 56 | 219 | 1.0 | 3.0 | 0.00 | 0.00 | 0.00 | 84 | 1081.3 |
| 20260507044203 | 56 | 217 | 1.0 | 3.0 | 0.00 | 0.00 | 0.00 | 84 | 1081.2 |
| 20260507044103 | 56 | 214 | 1.0 | 3.0 | 0.00 | 0.00 | 0.00 | 85 | 1081.1 |
| 20260507044017 | 56 | 214 | 1.0 | 3.0 | 0.00 | 0.00 | 0.00 | 86 | 1081.1 |
| 20260507043903 | 55 | 210 | 1.0 | 3.0 | 0.00 | 0.00 | 0.00 | 86 | 1081.3 |
| 20260507043818 | 55 | 210 | 1.0 | 3.0 | 0.00 | 0.00 | 0.00 | 86 | 1081.3 |
| 20260507043717 | 55 | 211 | 1.0 | 3.0 | 0.00 | 0.00 | 0.00 | 86 | 1081.2 |
| 20260507043703 | 55 | 212 | 1.0 | 3.0 | 0.00 | 0.00 | 0.00 | 85 | 1081.3 |
| 20260507043403 | 55 | 223 | 0.0 | 2.0 | 0.00 | 0.00 | 0.00 | 86 | 1081.1 |
| 20260507043303 | 54 | 233 | 0.0 | 2.0 | 0.00 | 0.00 | 0.00 | 86 | 1081.1 |
| 20260507043217 | 54 | 239 | 0.0 | 2.0 | 0.00 | 0.00 | 0.00 | 86 | 1081.1 |
| 20260507043203 | 54 | 238 | 0.0 | 2.0 | 0.00 | 0.00 | 0.00 | 86 | 1081.1 |
| 20260507043103 | 54 | 249 | 0.0 | 1.0 | 0.00 | 0.00 | 0.00 | 86 | 1080.8 |
| 20260507042903 | 54 | 249 | 0.0 | 1.0 | 0.00 | 0.00 | 0.00 | 87 | 1081.1 |
| 20260507042803 | 54 | 249 | 0.0 | 1.0 | 0.00 | 0.00 | 0.00 | 87 | 1081.1 |
| 20260507042703 | 54 | 248 | 0.0 | 1.0 | 0.00 | 0.00 | 0.00 | 87 | 1081.2 |
| 20260507042603 | 54 | 248 | 0.0 | 1.0 | 0.00 | 0.00 | 0.00 | 87 | 1081.2 |
| 20260507042503 | 54 | 251 | 0.0 | 2.0 | 0.00 | 0.00 | 0.00 | 87 | 1080.8 |
| 20260507042403 | 54 | 257 | 1.0 | 2.0 | 0.00 | 0.00 | 0.00 | 87 | 1081.1 |
| 20260507042306 | 53 | 259 | 1.0 | 2.0 | 0.00 | 0.00 | 0.00 | 87 | 1080.8 |
| 20260507042203 | 53 | 256 | 1.0 | 2.0 | 0.00 | 0.00 | 0.00 | 88 | 1080.9 |
| 20260507042103 | 53 | 257 | 1.0 | 2.0 | 0.00 | 0.00 | 0.00 | 87 | 1080.9 |
| 20260507042003 | 53 | 258 | 1.0 | 2.0 | 0.00 | 0.00 | 0.00 | 88 | 1080.6 |
| 20260507041917 | 53 | 258 | 1.0 | 2.0 | 0.00 | 0.00 | 0.00 | 88 | 1080.6 |
| 20260507041903 | 53 | 258 | 1.0 | 2.0 | 0.00 | 0.00 | 0.00 | 88 | 1080.9 |
| 20260507041818 | 53 | 258 | 1.0 | 2.0 | 0.00 | 0.00 | 0.00 | 88 | 1080.9 |
| 20260507041803 | 53 | 258 | 1.0 | 2.0 | 0.00 | 0.00 | 0.00 | 88 | 1081.1 |
| 20260507041503 | 53 | 261 | 0.0 | 2.0 | 0.00 | 0.00 | 0.00 | 88 | 1080.7 |
| 20260507041403 | 53 | 253 | 0.0 | 2.0 | 0.00 | 0.00 | 0.00 | 88 | 1080.9 |
| 20260507041303 | 53 | 240 | 0.0 | 2.0 | 0.00 | 0.00 | 0.00 | 88 | 1080.7 |
| 20260507041203 | 53 | 215 | 0.0 | 3.0 | 0.00 | 0.00 | 0.00 | 88 | 1080.9 |
| 20260507041103 | 53 | 205 | 0.0 | 3.0 | 0.00 | 0.00 | 0.00 | 89 | 1080.7 |
| 20260507041003 | 53 | 205 | 0.0 | 3.0 | 0.00 | 0.00 | 0.00 | 89 | 1080.7 |
| 20260507040903 | 53 | 210 | 1.0 | 3.0 | 0.00 | 0.00 | 0.00 | 89 | 1080.7 |
| 20260507040803 | 52 | 213 | 1.0 | 3.0 | 0.00 | 0.00 | 0.00 | 89 | 1080.8 |
| 20260507040717 | 52 | 218 | 1.0 | 3.0 | 0.00 | 0.00 | 0.00 | 89 | 1080.8 |
| 20260507040703 | 52 | 218 | 1.0 | 3.0 | 0.00 | 0.00 | 0.00 | 89 | 1080.9 |
| 20260507040603 | 52 | 217 | 1.0 | 3.0 | 0.00 | 0.00 | 0.00 | 89 | 1080.7 |
| 20260507040403 | 52 | 224 | 1.0 | 3.0 | 0.00 | 0.00 | 0.00 | 89 | 1080.7 |
| 20260507040303 | 52 | 220 | 1.0 | 3.0 | 0.00 | 0.00 | 0.00 | 89 | 1080.6 |
| 20260507040203 | 52 | 214 | 1.0 | 3.0 | 0.00 | 0.00 | 0.00 | 89 | 1080.6 |
| 20260507040003 | 52 | 216 | 1.0 | 3.0 | 0.00 | 0.00 | 0.00 | 89 | 1080.8 |
| 20260507035917 | 52 | 215 | 1.0 | 3.0 | 0.00 | 0.00 | 0.00 | 89 | 1080.8 |
| 20260507035903 | 52 | 213 | 1.0 | 3.0 | 0.00 | 0.00 | 0.00 | 89 | 1080.7 |
| 20260507035803 | 52 | 212 | 1.0 | 3.0 | 0.00 | 0.00 | 0.00 | 89 | 1080.6 |
| 20260507035603 | 51 | 204 | 0.0 | 3.0 | 0.00 | 0.00 | 0.00 | 89 | 1080.8 |
| 20260507035503 | 51 | 189 | 0.0 | 3.0 | 0.00 | 0.00 | 0.00 | 89 | 1080.7 |
| 20260507035403 | 51 | 182 | 0.0 | 3.0 | 0.00 | 0.00 | 0.00 | 89 | 1080.7 |
| 20260507035316 | 51 | 183 | 0.0 | 3.0 | 0.00 | 0.00 | 0.00 | 89 | 1080.7 |
| 20260507035306 | 51 | 184 | 0.0 | 3.0 | 0.00 | 0.00 | 0.00 | 89 | 1080.7 |
| 20260507035203 | 51 | 202 | 0.0 | 3.0 | 0.00 | 0.00 | 0.00 | 88 | 1080.7 |
| 20260507035003 | 51 | 0 | 0.0 | 0.0 | 0.00 | 0.00 | 0.00 | 88 | 1080.6 |
| 20260507034903 | 51 | 0 | 0.0 | 0.0 | 0.00 | 0.00 | 0.00 | 88 | 1080.5 |
| 20260507034803 | 51 | 0 | 0.0 | 0.0 | 0.00 | 0.00 | 0.00 | 89 | 1080.6 |
| 20260507034703 | 51 | 0 | 0.0 | 0.0 | 0.00 | 0.00 | 0.00 | 89 | 1080.5 |
| 20260507034603 | 51 | 0 | 0.0 | 0.0 | 0.00 | 0.00 | 0.00 | 88 | 1080.5 |
| 20260507034503 | 51 | 0 | 0.0 | 0.0 | 0.00 | 0.00 | 0.00 | 88 | 1080.4 |
| 20260507034404 | 51 | 0 | 0.0 | 0.0 | 0.00 | 0.00 | 0.00 | 89 | 1080.6 |
| 20260507034303 | 51 | 248 | 0.0 | 1.0 | 0.00 | 0.00 | 0.00 | 89 | 1080.5 |
| 20260507034217 | 51 | 255 | 0.0 | 2.0 | 0.00 | 0.00 | 0.00 | 88 | 1080.5 |
| 20260507034203 | 51 | 252 | 0.0 | 2.0 | 0.00 | 0.00 | 0.00 | 88 | 1080.4 |
| 20260507034103 | 51 | 249 | 0.0 | 2.0 | 0.00 | 0.00 | 0.00 | 88 | 1080.3 |
| 20260507033903 | 51 | 260 | 0.0 | 2.0 | 0.00 | 0.00 | 0.00 | 88 | 1080.3 |
| 20260507033803 | 51 | 260 | 0.0 | 2.0 | 0.00 | 0.00 | 0.00 | 88 | 1080.5 |
| 20260507033703 | 51 | 260 | 0.0 | 2.0 | 0.00 | 0.00 | 0.00 | 88 | 1080.3 |
| 20260507033617 | 51 | 260 | 0.0 | 2.0 | 0.00 | 0.00 | 0.00 | 88 | 1080.3 |
| 20260507033603 | 51 | 260 | 0.0 | 2.0 | 0.00 | 0.00 | 0.00 | 89 | 1080.4 |
| 20260507033503 | 51 | 260 | 0.0 | 2.0 | 0.00 | 0.00 | 0.00 | 88 | 1080.3 |
| 20260507033303 | 51 | 261 | 0.0 | 2.0 | 0.00 | 0.00 | 0.00 | 89 | 1080.3 |
| 20260507033217 | 51 | 264 | 0.0 | 1.0 | 0.00 | 0.00 | 0.00 | 89 | 1080.3 |
| 20260507033203 | 51 | 269 | 0.0 | 1.0 | 0.00 | 0.00 | 0.00 | 88 | 1080.4 |
| 20260507033103 | 51 | 287 | 0.0 | 1.0 | 0.00 | 0.00 | 0.00 | 88 | 1080.3 |
| 20260507033016 | 51 | 299 | 0.0 | 2.0 | 0.00 | 0.00 | 0.00 | 88 | 1080.3 |
| 20260507032903 | 51 | 315 | 0.0 | 2.0 | 0.00 | 0.00 | 0.00 | 88 | 1080.5 |
| 20260507032703 | 51 | 315 | 0.0 | 2.0 | 0.00 | 0.00 | 0.00 | 88 | 1080.3 |
| 20260507032603 | 51 | 315 | 0.0 | 2.0 | 0.00 | 0.00 | 0.00 | 88 | 1080.3 |
| 20260507032503 | 51 | 310 | 0.0 | 2.0 | 0.00 | 0.00 | 0.00 | 88 | 1080.2 |
| 20260507032403 | 51 | 306 | 0.0 | 2.0 | 0.00 | 0.00 | 0.00 | 88 | 1080.1 |
| 20260507032316 | 51 | 306 | 0.0 | 2.0 | 0.00 | 0.00 | 0.00 | 88 | 1080.1 |
| 20260507032305 | 51 | 306 | 0.0 | 2.0 | 0.00 | 0.00 | 0.00 | 88 | 1080.2 |
| 20260507032203 | 51 | 289 | 0.0 | 2.0 | 0.00 | 0.00 | 0.00 | 88 | 1080.5 |
| 20260507032003 | 51 | 214 | 0.0 | 4.0 | 0.00 | 0.00 | 0.00 | 88 | 1080.3 |
| 20260507031903 | 51 | 210 | 0.0 | 4.0 | 0.00 | 0.00 | 0.00 | 88 | 1080.2 |
| 20260507031803 | 51 | 210 | 0.0 | 4.0 | 0.00 | 0.00 | 0.00 | 88 | 1080.2 |
| 20260507031703 | 51 | 210 | 1.0 | 4.0 | 0.00 | 0.00 | 0.00 | 88 | 1080.0 |
| 20260507031603 | 51 | 209 | 1.0 | 4.0 | 0.00 | 0.00 | 0.00 | 89 | 1080.4 |
| 20260507031503 | 51 | 208 | 1.0 | 4.0 | 0.00 | 0.00 | 0.00 | 89 | 1080.4 |
| 20260507031403 | 51 | 205 | 1.0 | 4.0 | 0.00 | 0.00 | 0.00 | 89 | 1080.4 |
| 20260507031303 | 51 | 205 | 1.0 | 4.0 | 0.00 | 0.00 | 0.00 | 89 | 1080.4 |
| 20260507031103 | 51 | 208 | 1.0 | 4.0 | 0.00 | 0.00 | 0.00 | 88 | 1080.4 |
| 20260507031003 | 50 | 209 | 0.0 | 3.0 | 0.00 | 0.00 | 0.00 | 89 | 1080.0 |
| 20260507030917 | 50 | 209 | 0.0 | 3.0 | 0.00 | 0.00 | 0.00 | 88 | 1080.0 |
| 20260507030903 | 50 | 209 | 0.0 | 3.0 | 0.00 | 0.00 | 0.00 | 88 | 1080.4 |
| 20260507030817 | 50 | 209 | 0.0 | 3.0 | 0.00 | 0.00 | 0.00 | 89 | 1080.4 |
| 20260507030803 | 50 | 209 | 0.0 | 3.0 | 0.00 | 0.00 | 0.00 | 89 | 1080.2 |
| 20260507030616 | 50 | 210 | 0.0 | 3.0 | 0.00 | 0.00 | 0.00 | 87 | 1080.2 |
| 20260507030503 | 50 | 216 | 0.0 | 2.0 | 0.00 | 0.00 | 0.00 | 87 | 1080.2 |
| 20260507030418 | 50 | 220 | 0.0 | 1.0 | 0.00 | 0.00 | 0.00 | 88 | 1080.2 |
| 20260507030303 | 50 | 0 | 0.0 | 0.0 | 0.00 | 0.00 | 0.00 | 87 | 1080.3 |
| 20260507030003 | 50 | 0 | 0.0 | 0.0 | 0.00 | 0.00 | 0.00 | 87 | 1080.2 |
| 20260507025903 | 50 | 0 | 0.0 | 0.0 | 0.00 | 0.00 | 0.00 | 87 | 1080.3 |
| 20260507025803 | 50 | 0 | 0.0 | 0.0 | 0.00 | 0.00 | 0.00 | 87 | 1080.3 |
| 20260507025703 | 50 | 231 | 0.0 | 1.0 | 0.00 | 0.00 | 0.00 | 87 | 1080.2 |
| 20260507025603 | 50 | 231 | 0.0 | 1.0 | 0.00 | 0.00 | 0.00 | 87 | 1080.3 |
| 20260507025503 | 50 | 231 | 0.0 | 1.0 | 0.00 | 0.00 | 0.00 | 87 | 1080.3 |
| 20260507025403 | 50 | 219 | 0.0 | 1.0 | 0.00 | 0.00 | 0.00 | 87 | 1080.3 |
| 20260507025306 | 50 | 215 | 0.0 | 2.0 | 0.00 | 0.00 | 0.00 | 87 | 1080.1 |
| 20260507025203 | 50 | 210 | 0.0 | 2.0 | 0.00 | 0.00 | 0.00 | 87 | 1080.5 |
| 20260507025103 | 50 | 208 | 0.0 | 2.0 | 0.00 | 0.00 | 0.00 | 87 | 1080.3 |
| 20260507025003 | 50 | 207 | 0.0 | 2.0 | 0.00 | 0.00 | 0.00 | 87 | 1080.3 |
| 20260507024916 | 50 | 205 | 0.0 | 2.0 | 0.00 | 0.00 | 0.00 | 87 | 1080.3 |
| 20260507024903 | 50 | 205 | 0.0 | 2.0 | 0.00 | 0.00 | 0.00 | 87 | 1080.4 |
| 20260507024803 | 50 | 204 | 0.0 | 2.0 | 0.00 | 0.00 | 0.00 | 88 | 1080.1 |
| 20260507024603 | 50 | 201 | 1.0 | 2.0 | 0.00 | 0.00 | 0.00 | 87 | 1080.3 |
| 20260507024503 | 50 | 202 | 1.0 | 2.0 | 0.00 | 0.00 | 0.00 | 87 | 1080.1 |
| 20260507024403 | 50 | 203 | 1.0 | 2.0 | 0.00 | 0.00 | 0.00 | 88 | 1080.0 |
| 20260507024316 | 50 | 202 | 1.0 | 2.0 | 0.00 | 0.00 | 0.00 | 87 | 1080.0 |
| 20260507024303 | 50 | 202 | 1.0 | 2.0 | 0.00 | 0.00 | 0.00 | 87 | 1080.2 |
| 20260507024203 | 50 | 202 | 0.0 | 2.0 | 0.00 | 0.00 | 0.00 | 87 | 1080.2 |
| 20260507024003 | 51 | 200 | 0.0 | 2.0 | 0.00 | 0.00 | 0.00 | 87 | 1080.2 |
| 20260507023903 | 50 | 203 | 0.0 | 1.0 | 0.00 | 0.00 | 0.00 | 87 | 1080.3 |
| 20260507023803 | 51 | 205 | 0.0 | 1.0 | 0.00 | 0.00 | 0.00 | 87 | 1080.3 |
| 20260507023703 | 51 | 219 | 0.0 | 1.0 | 0.00 | 0.00 | 0.00 | 87 | 1080.1 |
| 20260507023603 | 51 | 225 | 0.0 | 1.0 | 0.00 | 0.00 | 0.00 | 87 | 1080.1 |
| 20260507023503 | 51 | 225 | 0.0 | 1.0 | 0.00 | 0.00 | 0.00 | 87 | 1080.1 |
| 20260507023403 | 51 | 0 | 0.0 | 0.0 | 0.00 | 0.00 | 0.00 | 87 | 1080.0 |
| 20260507023318 | 51 | 0 | 0.0 | 0.0 | 0.00 | 0.00 | 0.00 | 87 | 1080.0 |
| 20260507023203 | 51 | 0 | 0.0 | 0.0 | 0.00 | 0.00 | 0.00 | 87 | 1080.2 |
| 20260507023003 | 51 | 0 | 0.0 | 0.0 | 0.00 | 0.00 | 0.00 | 87 | 1080.2 |
| 20260507022903 | 51 | 222 | 0.0 | 1.0 | 0.00 | 0.00 | 0.00 | 87 | 1080.1 |
| 20260507022803 | 51 | 230 | 0.0 | 2.0 | 0.00 | 0.00 | 0.00 | 87 | 1079.9 |
| 20260507022703 | 51 | 230 | 0.0 | 2.0 | 0.00 | 0.00 | 0.00 | 87 | 1080.1 |
| 20260507022603 | 51 | 230 | 0.0 | 2.0 | 0.00 | 0.00 | 0.00 | 87 | 1080.3 |
| 20260507022503 | 51 | 230 | 0.0 | 2.0 | 0.00 | 0.00 | 0.00 | 87 | 1080.0 |
| 20260507022403 | 51 | 230 | 0.0 | 2.0 | 0.00 | 0.00 | 0.00 | 87 | 1079.9 |
| 20260507022306 | 51 | 230 | 0.0 | 2.0 | 0.00 | 0.00 | 0.00 | 87 | 1080.2 |
| 20260507022203 | 51 | 230 | 0.0 | 2.0 | 0.00 | 0.00 | 0.00 | 87 | 1080.2 |
| 20260507022103 | 51 | 230 | 0.0 | 2.0 | 0.00 | 0.00 | 0.00 | 87 | 1080.1 |
| 20260507021903 | 51 | 233 | 0.0 | 2.0 | 0.00 | 0.00 | 0.00 | 87 | 1080.3 |
| 20260507021803 | 51 | 289 | 0.0 | 2.0 | 0.00 | 0.00 | 0.00 | 87 | 1080.2 |
| 20260507021703 | 51 | 277 | 0.0 | 2.0 | 0.00 | 0.00 | 0.00 | 87 | 1080.3 |
| 20260507021603 | 51 | 267 | 0.0 | 2.0 | 0.00 | 0.00 | 0.00 | 87 | 1080.1 |
| 20260507021503 | 51 | 272 | 0.0 | 3.0 | 0.00 | 0.00 | 0.00 | 87 | 1080.2 |
| 20260507021404 | 51 | 269 | 0.0 | 3.0 | 0.00 | 0.00 | 0.00 | 87 | 1080.1 |
| 20260507021318 | 51 | 267 | 0.0 | 3.0 | 0.00 | 0.00 | 0.00 | 87 | 1080.1 |
| 20260507021303 | 51 | 267 | 0.0 | 3.0 | 0.00 | 0.00 | 0.00 | 87 | 1080.4 |
| 20260507021203 | 51 | 266 | 0.0 | 3.0 | 0.00 | 0.00 | 0.00 | 87 | 1079.9 |
| 20260507021003 | 51 | 263 | 0.0 | 3.0 | 0.00 | 0.00 | 0.00 | 87 | 1080.0 |
| 20260507020903 | 51 | 261 | 0.0 | 3.0 | 0.00 | 0.00 | 0.00 | 87 | 1080.1 |
| 20260507020803 | 51 | 260 | 0.0 | 3.0 | 0.00 | 0.00 | 0.00 | 87 | 1079.9 |
| 20260507020703 | 51 | 258 | 0.0 | 3.0 | 0.00 | 0.00 | 0.00 | 87 | 1080.1 |
| 20260507020603 | 51 | 256 | 0.0 | 3.0 | 0.00 | 0.00 | 0.00 | 87 | 1080.1 |
| 20260507020503 | 51 | 246 | 0.0 | 1.0 | 0.00 | 0.00 | 0.00 | 87 | 1080.0 |
| 20260507020403 | 51 | 239 | 0.0 | 4.0 | 0.00 | 0.00 | 0.00 | 87 | 1080.1 |
| 20260507020318 | 51 | 246 | 0.0 | 4.0 | 0.00 | 0.00 | 0.00 | 87 | 1080.1 |
| 20260507020303 | 51 | 243 | 0.0 | 4.0 | 0.00 | 0.00 | 0.00 | 87 | 1080.1 |
| 20260507020203 | 51 | 242 | 1.0 | 4.0 | 0.00 | 0.00 | 0.00 | 87 | 1080.0 |
| 20260507020003 | 51 | 242 | 1.0 | 4.0 | 0.00 | 0.00 | 0.00 | 87 | 1080.0 |
| 20260507015903 | 51 | 242 | 1.0 | 4.0 | 0.00 | 0.00 | 0.00 | 87 | 1080.1 |
| 20260507015803 | 51 | 244 | 1.0 | 4.0 | 0.00 | 0.00 | 0.00 | 87 | 1080.0 |
| 20260507015717 | 51 | 250 | 1.0 | 4.0 | 0.00 | 0.00 | 0.00 | 87 | 1080.0 |
| 20260507015703 | 51 | 253 | 1.0 | 4.0 | 0.00 | 0.00 | 0.00 | 87 | 1079.9 |
| 20260507015603 | 51 | 256 | 1.0 | 4.0 | 0.00 | 0.00 | 0.00 | 87 | 1079.9 |
| 20260507015517 | 51 | 255 | 1.0 | 4.0 | 0.00 | 0.00 | 0.00 | 87 | 1079.9 |
| 20260507015403 | 51 | 257 | 1.0 | 3.0 | 0.00 | 0.00 | 0.00 | 87 | 1079.7 |
| 20260507015203 | 51 | 265 | 1.0 | 3.0 | 0.00 | 0.00 | 0.00 | 86 | 1079.9 |
| 20260507015103 | 51 | 266 | 1.0 | 3.0 | 0.00 | 0.00 | 0.00 | 86 | 1080.0 |
| 20260507015003 | 51 | 264 | 1.0 | 3.0 | 0.00 | 0.00 | 0.00 | 86 | 1079.8 |
| 20260507014916 | 51 | 262 | 1.0 | 3.0 | 0.00 | 0.00 | 0.00 | 86 | 1079.8 |
| 20260507014903 | 51 | 261 | 1.0 | 3.0 | 0.00 | 0.00 | 0.00 | 86 | 1079.6 |
| 20260507014817 | 51 | 260 | 1.0 | 3.0 | 0.00 | 0.00 | 0.00 | 86 | 1079.6 |
| 20260507014803 | 52 | 260 | 1.0 | 3.0 | 0.00 | 0.00 | 0.00 | 86 | 1079.6 |
| 20260507014503 | 52 | 257 | 1.0 | 3.0 | 0.00 | 0.00 | 0.00 | 87 | 1079.5 |
| 20260507014403 | 52 | 256 | 1.0 | 3.0 | 0.00 | 0.00 | 0.00 | 87 | 1079.7 |
| 20260507014303 | 52 | 251 | 1.0 | 3.0 | 0.00 | 0.00 | 0.00 | 87 | 1079.6 |
| 20260507014203 | 52 | 246 | 1.0 | 3.0 | 0.00 | 0.00 | 0.00 | 87 | 1079.6 |
| 20260507014103 | 52 | 244 | 1.0 | 3.0 | 0.00 | 0.00 | 0.00 | 87 | 1079.5 |
| 20260507014003 | 52 | 245 | 1.0 | 3.0 | 0.00 | 0.00 | 0.00 | 87 | 1079.6 |
| 20260507013903 | 52 | 244 | 1.0 | 3.0 | 0.00 | 0.00 | 0.00 | 87 | 1079.5 |
| 20260507013803 | 52 | 245 | 1.0 | 3.0 | 0.00 | 0.00 | 0.00 | 86 | 1079.5 |
| 20260507013703 | 52 | 244 | 1.0 | 3.0 | 0.00 | 0.00 | 0.00 | 87 | 1079.6 |
| 20260507013603 | 52 | 247 | 1.0 | 2.0 | 0.00 | 0.00 | 0.00 | 86 | 1079.6 |
| 20260507013503 | 52 | 247 | 1.0 | 2.0 | 0.00 | 0.00 | 0.00 | 86 | 1079.6 |
| 20260507013403 | 52 | 254 | 1.0 | 2.0 | 0.00 | 0.00 | 0.00 | 86 | 1079.7 |
| 20260507013303 | 52 | 261 | 1.0 | 2.0 | 0.00 | 0.00 | 0.00 | 86 | 1079.6 |
| 20260507013203 | 52 | 272 | 1.0 | 2.0 | 0.00 | 0.00 | 0.00 | 86 | 1079.6 |
| 20260507013103 | 52 | 280 | 1.0 | 2.0 | 0.00 | 0.00 | 0.00 | 86 | 1079.6 |
| 20260507013003 | 52 | 286 | 1.0 | 2.0 | 0.00 | 0.00 | 0.00 | 86 | 1079.5 |
| 20260507012903 | 52 | 292 | 1.0 | 2.0 | 0.00 | 0.00 | 0.00 | 86 | 1079.4 |
| 20260507012803 | 52 | 297 | 1.0 | 2.0 | 0.00 | 0.00 | 0.00 | 87 | 1079.4 |
| 20260507012703 | 52 | 297 | 1.0 | 2.0 | 0.00 | 0.00 | 0.00 | 87 | 1079.5 |
| 20260507012603 | 52 | 287 | 1.0 | 2.0 | 0.00 | 0.00 | 0.00 | 87 | 1079.4 |
| 20260507012503 | 52 | 282 | 1.0 | 2.0 | 0.00 | 0.00 | 0.00 | 87 | 1079.4 |
| 20260507012403 | 52 | 276 | 1.0 | 2.0 | 0.00 | 0.00 | 0.00 | 87 | 1079.4 |
| 20260507012306 | 52 | 267 | 1.0 | 2.0 | 0.00 | 0.00 | 0.00 | 87 | 1079.3 |
| 20260507012203 | 52 | 260 | 1.0 | 3.0 | 0.00 | 0.00 | 0.00 | 87 | 1079.6 |
| 20260507012103 | 52 | 255 | 1.0 | 3.0 | 0.00 | 0.00 | 0.00 | 87 | 1079.7 |
| 20260507012017 | 52 | 255 | 1.0 | 3.0 | 0.00 | 0.00 | 0.00 | 86 | 1079.7 |
| 20260507012003 | 52 | 252 | 1.0 | 3.0 | 0.00 | 0.00 | 0.00 | 86 | 1079.8 |
| 20260507011903 | 52 | 248 | 1.0 | 3.0 | 0.00 | 0.00 | 0.00 | 86 | 1079.7 |
| 20260507011817 | 52 | 247 | 1.0 | 3.0 | 0.00 | 0.00 | 0.00 | 86 | 1079.7 |
| 20260507011703 | 52 | 246 | 1.0 | 3.0 | 0.00 | 0.00 | 0.00 | 86 | 1079.6 |
| 20260507011618 | 52 | 246 | 1.0 | 3.0 | 0.00 | 0.00 | 0.00 | 87 | 1079.6 |
| 20260507011516 | 52 | 246 | 1.0 | 3.0 | 0.00 | 0.00 | 0.00 | 87 | 1079.8 |
| 20260507011503 | 52 | 247 | 1.0 | 3.0 | 0.00 | 0.00 | 0.00 | 87 | 1079.8 |
| 20260507011203 | 52 | 244 | 1.0 | 3.0 | 0.00 | 0.00 | 0.00 | 87 | 1079.7 |
| 20260507011103 | 52 | 244 | 1.0 | 3.0 | 0.00 | 0.00 | 0.00 | 87 | 1079.5 |
| 20260507011003 | 52 | 244 | 1.0 | 3.0 | 0.00 | 0.00 | 0.00 | 87 | 1079.8 |
| 20260507010918 | 52 | 242 | 1.0 | 3.0 | 0.00 | 0.00 | 0.00 | 87 | 1079.8 |
| 20260507010903 | 52 | 240 | 1.0 | 3.0 | 0.00 | 0.00 | 0.00 | 87 | 1079.8 |
| 20260507010817 | 52 | 236 | 1.0 | 3.0 | 0.00 | 0.00 | 0.00 | 87 | 1079.8 |
| 20260507010503 | 52 | 232 | 1.0 | 4.0 | 0.00 | 0.00 | 0.00 | 87 | 1079.7 |
| 20260507010403 | 52 | 232 | 1.0 | 4.0 | 0.00 | 0.00 | 0.00 | 87 | 1079.7 |
| 20260507010303 | 52 | 232 | 1.0 | 4.0 | 0.00 | 0.00 | 0.00 | 87 | 1079.7 |
| 20260507010203 | 52 | 226 | 1.0 | 4.0 | 0.00 | 0.00 | 0.00 | 87 | 1079.7 |
| 20260507010003 | 52 | 224 | 1.0 | 4.0 | 0.00 | 0.00 | 0.00 | 87 | 1079.7 |
| 20260507005903 | 52 | 231 | 1.0 | 4.0 | 0.00 | 0.00 | 0.00 | 87 | 1079.5 |
| 20260507005803 | 52 | 240 | 1.0 | 4.0 | 0.00 | 0.00 | 0.00 | 87 | 1079.5 |
| 20260507005703 | 52 | 244 | 1.0 | 4.0 | 0.00 | 0.00 | 0.00 | 87 | 1079.6 |
| 20260507005603 | 52 | 247 | 1.0 | 4.0 | 0.00 | 0.00 | 0.00 | 88 | 1079.4 |
| 20260507005503 | 52 | 250 | 1.0 | 4.0 | 0.00 | 0.00 | 0.00 | 88 | 1079.5 |
| 20260507005403 | 52 | 253 | 2.0 | 4.0 | 0.00 | 0.00 | 0.00 | 87 | 1079.4 |
| 20260507005305 | 52 | 253 | 2.0 | 4.0 | 0.00 | 0.00 | 0.00 | 87 | 1079.4 |
| 20260507005203 | 52 | 259 | 2.0 | 4.0 | 0.00 | 0.00 | 0.00 | 87 | 1079.3 |
| 20260507005103 | 52 | 262 | 2.0 | 4.0 | 0.00 | 0.00 | 0.00 | 87 | 1079.5 |
| 20260507005003 | 52 | 262 | 2.0 | 4.0 | 0.00 | 0.00 | 0.00 | 88 | 1079.3 |
| 20260507004903 | 52 | 262 | 2.0 | 4.0 | 0.00 | 0.00 | 0.00 | 87 | 1079.5 |
| 20260507004803 | 52 | 258 | 2.0 | 4.0 | 0.00 | 0.00 | 0.00 | 87 | 1079.5 |
| 20260507004717 | 52 | 259 | 2.0 | 4.0 | 0.00 | 0.00 | 0.00 | 87 | 1079.5 |
| 20260507004703 | 52 | 258 | 2.0 | 4.0 | 0.00 | 0.00 | 0.00 | 88 | 1079.5 |
| 20260507004603 | 52 | 258 | 2.0 | 4.0 | 0.00 | 0.00 | 0.00 | 88 | 1079.5 |
| 20260507004516 | 52 | 256 | 2.0 | 4.0 | 0.00 | 0.00 | 0.00 | 88 | 1079.5 |
| 20260507004403 | 52 | 256 | 2.0 | 4.0 | 0.00 | 0.00 | 0.00 | 88 | 1079.4 |
| 20260507004203 | 52 | 260 | 2.0 | 4.0 | 0.00 | 0.00 | 0.00 | 87 | 1079.3 |
| 20260507004103 | 52 | 256 | 2.0 | 6.0 | 0.00 | 0.00 | 0.00 | 87 | 1079.4 |
| 20260507004003 | 52 | 253 | 2.0 | 6.0 | 0.00 | 0.00 | 0.00 | 87 | 1079.3 |
| 20260507003903 | 52 | 250 | 2.0 | 7.0 | 0.00 | 0.00 | 0.00 | 87 | 1079.3 |
| 20260507003816 | 52 | 249 | 2.0 | 7.0 | 0.00 | 0.00 | 0.00 | 87 | 1079.3 |
| 20260507003803 | 52 | 249 | 2.0 | 7.0 | 0.00 | 0.00 | 0.00 | 87 | 1079.4 |
| 20260507003703 | 52 | 242 | 2.0 | 7.0 | 0.00 | 0.00 | 0.00 | 87 | 1079.3 |
| 20260507003503 | 52 | 234 | 2.0 | 7.0 | 0.00 | 0.00 | 0.00 | 87 | 1079.4 |
| 20260507003417 | 53 | 225 | 2.0 | 7.0 | 0.00 | 0.00 | 0.00 | 87 | 1079.4 |
| 20260507003403 | 53 | 222 | 2.0 | 7.0 | 0.00 | 0.00 | 0.00 | 87 | 1079.4 |
| 20260507003303 | 53 | 213 | 2.0 | 7.0 | 0.00 | 0.00 | 0.00 | 87 | 1079.4 |
| 20260507003103 | 53 | 201 | 2.0 | 7.0 | 0.00 | 0.00 | 0.00 | 87 | 1079.4 |
| 20260507003003 | 53 | 199 | 2.0 | 7.0 | 0.00 | 0.00 | 0.00 | 86 | 1079.5 |
| 20260507002903 | 53 | 197 | 2.0 | 7.0 | 0.00 | 0.00 | 0.00 | 86 | 1079.6 |
| 20260507002816 | 53 | 199 | 2.0 | 7.0 | 0.00 | 0.00 | 0.00 | 86 | 1079.6 |
| 20260507002803 | 53 | 199 | 2.0 | 7.0 | 0.00 | 0.00 | 0.00 | 86 | 1079.5 |
| 20260507002703 | 53 | 200 | 2.0 | 7.0 | 0.00 | 0.00 | 0.00 | 87 | 1079.5 |
| 20260507002503 | 53 | 200 | 2.0 | 7.0 | 0.00 | 0.00 | 0.00 | 86 | 1079.3 |
| 20260507002403 | 53 | 200 | 2.0 | 7.0 | 0.00 | 0.00 | 0.00 | 86 | 1079.5 |
| 20260507002317 | 53 | 198 | 1.0 | 4.0 | 0.00 | 0.00 | 0.00 | 86 | 1079.5 |
| 20260507002306 | 53 | 198 | 1.0 | 4.0 | 0.00 | 0.00 | 0.00 | 86 | 1079.4 |
| 20260507002218 | 53 | 201 | 2.0 | 4.0 | 0.00 | 0.00 | 0.00 | 86 | 1079.4 |
| 20260507002203 | 53 | 202 | 2.0 | 4.0 | 0.00 | 0.00 | 0.00 | 86 | 1079.5 |
| 20260507001903 | 53 | 200 | 2.0 | 4.0 | 0.00 | 0.00 | 0.00 | 85 | 1079.5 |
| 20260507001803 | 53 | 199 | 2.0 | 4.0 | 0.00 | 0.00 | 0.00 | 85 | 1079.4 |
| 20260507001703 | 53 | 201 | 2.0 | 4.0 | 0.00 | 0.00 | 0.00 | 86 | 1079.5 |
| 20260507001603 | 53 | 203 | 2.0 | 6.0 | 0.00 | 0.00 | 0.00 | 86 | 1079.5 |
| 20260507001503 | 53 | 203 | 2.0 | 6.0 | 0.00 | 0.00 | 0.00 | 86 | 1079.6 |
| 20260507001403 | 53 | 203 | 2.0 | 6.0 | 0.00 | 0.00 | 0.00 | 86 | 1079.4 |
| 20260507001303 | 53 | 202 | 2.0 | 6.0 | 0.00 | 0.00 | 0.00 | 86 | 1079.4 |
| 20260507001218 | 53 | 199 | 2.0 | 6.0 | 0.00 | 0.00 | 0.00 | 85 | 1079.4 |
| 20260507001203 | 53 | 197 | 2.0 | 6.0 | 0.00 | 0.00 | 0.00 | 85 | 1079.2 |
| 20260507001103 | 53 | 196 | 2.0 | 6.0 | 0.00 | 0.00 | 0.00 | 85 | 1079.3 |
| 20260507000903 | 53 | 193 | 1.0 | 6.0 | 0.00 | 0.00 | 0.00 | 85 | 1079.2 |
| 20260507000803 | 53 | 196 | 1.0 | 6.0 | 0.00 | 0.00 | 0.00 | 85 | 1079.2 |
| 20260507000717 | 54 | 205 | 1.0 | 6.0 | 0.00 | 0.00 | 0.00 | 85 | 1079.2 |
| 20260507000703 | 54 | 207 | 1.0 | 6.0 | 0.00 | 0.00 | 0.00 | 85 | 1079.2 |
| 20260507000617 | 54 | 214 | 1.0 | 4.0 | 0.00 | 0.00 | 0.00 | 85 | 1079.2 |
| 20260507000603 | 54 | 215 | 1.0 | 4.0 | 0.00 | 0.00 | 0.00 | 85 | 1079.2 |
| 20260507000303 | 54 | 241 | 1.0 | 6.0 | 0.00 | 0.00 | 0.00 | 85 | 1079.2 |
| 20260507000219 | 54 | 242 | 1.0 | 6.0 | 0.00 | 0.00 | 0.00 | 85 | 1079.2 |
| 20260507000204 | 54 | 243 | 1.0 | 6.0 | 0.00 | 0.00 | 0.00 | 85 | 1079.2 |
| 20260506235917 | 54 | 231 | 2.0 | 6.0 | 0.00 | 0.00 | 0.00 | 85 | 1078.9 |
| 20260506235903 | 54 | 231 | 2.0 | 6.0 | 0.00 | 0.00 | 0.00 | 85 | 1079.2 |
| 20260506235803 | 54 | 228 | 2.0 | 6.0 | 0.00 | 0.00 | 0.00 | 85 | 1079.2 |
| 20260506235617 | 54 | 212 | 2.0 | 6.0 | 0.00 | 0.00 | 0.00 | 85 | 1079.0 |
| 20260506235603 | 54 | 210 | 2.0 | 6.0 | 0.00 | 0.00 | 0.00 | 85 | 1079.2 |
| 20260506235503 | 54 | 203 | 2.0 | 6.0 | 0.00 | 0.00 | 0.00 | 85 | 1078.8 |
| 20260506235306 | 54 | 191 | 2.0 | 4.0 | 0.00 | 0.00 | 0.00 | 85 | 1079.2 |
| 20260506235203 | 54 | 196 | 2.0 | 4.0 | 0.00 | 0.00 | 0.00 | 86 | 1079.3 |
| 20260506235103 | 54 | 198 | 1.0 | 4.0 | 0.00 | 0.00 | 0.00 | 86 | 1078.9 |
| 20260506235003 | 54 | 204 | 1.0 | 4.0 | 0.00 | 0.00 | 0.00 | 86 | 1079.0 |
| 20260506234903 | 54 | 208 | 2.0 | 4.0 | 0.00 | 0.00 | 0.00 | 86 | 1079.2 |
| 20260506234803 | 54 | 226 | 2.0 | 6.0 | 0.00 | 0.00 | 0.00 | 86 | 1078.9 |
| 20260506234703 | 54 | 285 | 2.0 | 6.0 | 0.00 | 0.00 | 0.00 | 85 | 1079.2 |
| 20260506234603 | 54 | 358 | 2.0 | 9.0 | 0.00 | 0.00 | 0.00 | 85 | 1078.7 |
| 20260506234518 | 54 | 358 | 2.0 | 9.0 | 0.00 | 0.00 | 0.00 | 85 | 1078.7 |
| 20260506234503 | 54 | 355 | 2.0 | 9.0 | 0.00 | 0.00 | 0.00 | 85 | 1078.8 |
| 20260506234403 | 54 | 357 | 2.0 | 9.0 | 0.00 | 0.00 | 0.00 | 85 | 1078.7 |
| 20260506234203 | 54 | 360 | 3.0 | 9.0 | 0.00 | 0.00 | 0.00 | 86 | 1078.5 |
| 20260506234103 | 54 | 1 | 3.0 | 9.0 | 0.00 | 0.00 | 0.00 | 86 | 1078.7 |
| 20260506234003 | 54 | 3 | 3.0 | 9.0 | 0.00 | 0.00 | 0.00 | 86 | 1078.5 |
| 20260506233903 | 54 | 1 | 2.0 | 9.0 | 0.00 | 0.00 | 0.00 | 86 | 1078.4 |
| 20260506233803 | 54 | 1 | 2.0 | 9.0 | 0.00 | 0.00 | 0.00 | 86 | 1078.2 |
| 20260506233717 | 54 | 356 | 2.0 | 9.0 | 0.00 | 0.00 | 0.00 | 86 | 1078.2 |
| 20260506233703 | 54 | 353 | 2.0 | 9.0 | 0.00 | 0.00 | 0.00 | 86 | 1078.4 |
| 20260506233603 | 54 | 340 | 2.0 | 7.0 | 0.00 | 0.00 | 0.00 | 86 | 1078.4 |
| 20260506233403 | 54 | 329 | 2.0 | 7.0 | 0.00 | 0.00 | 0.00 | 86 | 1078.4 |
| 20260506233303 | 54 | 323 | 2.0 | 7.0 | 0.00 | 0.00 | 0.00 | 86 | 1078.1 |
| 20260506233203 | 54 | 316 | 1.0 | 6.0 | 0.00 | 0.00 | 0.00 | 86 | 1078.2 |
| 20260506233103 | 54 | 311 | 1.0 | 6.0 | 0.00 | 0.00 | 0.00 | 86 | 1078.3 |
| 20260506233003 | 54 | 311 | 2.0 | 6.0 | 0.00 | 0.00 | 0.00 | 86 | 1078.3 |
| 20260506232903 | 54 | 322 | 2.0 | 7.0 | 0.00 | 0.00 | 0.00 | 86 | 1078.5 |
| 20260506232818 | 54 | 317 | 2.0 | 8.0 | 0.00 | 0.00 | 0.00 | 86 | 1078.5 |
| 20260506232803 | 54 | 319 | 3.0 | 8.0 | 0.00 | 0.00 | 0.00 | 86 | 1078.4 |
| 20260506232703 | 54 | 328 | 3.0 | 8.0 | 0.00 | 0.00 | 0.00 | 86 | 1078.4 |
| 20260506232503 | 54 | 340 | 3.0 | 8.0 | 0.00 | 0.00 | 0.00 | 86 | 1078.4 |
| 20260506232403 | 54 | 341 | 3.0 | 8.0 | 0.00 | 0.00 | 0.00 | 86 | 1078.4 |
| 20260506232306 | 54 | 340 | 4.0 | 10.0 | 0.00 | 0.00 | 0.00 | 86 | 1078.3 |
| 20260506232203 | 54 | 336 | 4.0 | 10.0 | 0.00 | 0.00 | 0.00 | 86 | 1078.1 |
| 20260506232103 | 54 | 341 | 4.0 | 10.0 | 0.00 | 0.00 | 0.00 | 86 | 1078.0 |
| 20260506232003 | 54 | 344 | 4.0 | 10.0 | 0.00 | 0.00 | 0.00 | 86 | 1078.0 |
| 20260506231903 | 54 | 344 | 5.0 | 10.0 | 0.00 | 0.00 | 0.00 | 86 | 1078.2 |
| 20260506231818 | 54 | 348 | 5.0 | 10.0 | 0.00 | 0.00 | 0.00 | 86 | 1078.2 |
| 20260506231803 | 54 | 349 | 5.0 | 10.0 | 0.00 | 0.00 | 0.00 | 86 | 1078.1 |
| 20260506231703 | 54 | 347 | 5.0 | 10.0 | 0.00 | 0.00 | 0.00 | 86 | 1078.1 |
| 20260506231503 | 54 | 348 | 5.0 | 10.0 | 0.00 | 0.00 | 0.00 | 86 | 1078.0 |
| 20260506231403 | 54 | 350 | 5.0 | 10.0 | 0.00 | 0.00 | 0.00 | 86 | 1078.1 |
| 20260506231303 | 54 | 352 | 4.0 | 10.0 | 0.00 | 0.00 | 0.00 | 86 | 1078.1 |
| 20260506231203 | 54 | 357 | 4.0 | 10.0 | 0.00 | 0.00 | 0.00 | 86 | 1078.4 |
| 20260506231103 | 54 | 354 | 4.0 | 10.0 | 0.00 | 0.00 | 0.00 | 86 | 1077.9 |
| 20260506231003 | 54 | 350 | 4.0 | 10.0 | 0.00 | 0.00 | 0.00 | 86 | 1078.0 |
| 20260506230903 | 54 | 347 | 4.0 | 10.0 | 0.00 | 0.00 | 0.00 | 86 | 1077.8 |
| 20260506230803 | 54 | 342 | 4.0 | 10.0 | 0.00 | 0.00 | 0.00 | 86 | 1078.2 |
| 20260506230703 | 54 | 339 | 4.0 | 10.0 | 0.00 | 0.00 | 0.00 | 86 | 1078.0 |
| 20260506230603 | 54 | 339 | 3.0 | 10.0 | 0.00 | 0.00 | 0.00 | 86 | 1078.1 |
| 20260506230503 | 54 | 335 | 3.0 | 10.0 | 0.00 | 0.00 | 0.00 | 86 | 1077.9 |
| 20260506230403 | 54 | 336 | 4.0 | 10.0 | 0.00 | 0.00 | 0.00 | 86 | 1078.0 |
| 20260506230303 | 54 | 332 | 4.0 | 10.0 | 0.00 | 0.00 | 0.00 | 86 | 1078.2 |
| 20260506230217 | 54 | 330 | 4.0 | 10.0 | 0.00 | 0.00 | 0.00 | 86 | 1078.2 |
| 20260506230203 | 54 | 328 | 4.0 | 10.0 | 0.00 | 0.00 | 0.00 | 86 | 1078.1 |
| 20260506230118 | 54 | 329 | 4.0 | 10.0 | 0.00 | 0.00 | 0.00 | 86 | 1078.1 |
| 20260506230103 | 54 | 331 | 4.0 | 10.0 | 0.00 | 0.00 | 0.00 | 86 | 1078.2 |
| 20260506225803 | 54 | 325 | 4.0 | 9.0 | 0.00 | 0.00 | 0.00 | 85 | 1078.1 |
| 20260506225703 | 54 | 322 | 4.0 | 9.0 | 0.00 | 0.00 | 0.00 | 85 | 1078.1 |
| 20260506225603 | 54 | 317 | 4.0 | 9.0 | 0.00 | 0.00 | 0.00 | 85 | 1078.0 |
| 20260506225517 | 54 | 312 | 4.0 | 9.0 | 0.00 | 0.00 | 0.00 | 85 | 1078.0 |
| 20260506225503 | 54 | 310 | 4.0 | 9.0 | 0.00 | 0.00 | 0.00 | 85 | 1078.0 |
| 20260506225403 | 54 | 298 | 5.0 | 9.0 | 0.00 | 0.00 | 0.00 | 85 | 1078.1 |
| 20260506225217 | 54 | 294 | 5.0 | 9.0 | 0.00 | 0.00 | 0.00 | 85 | 1078.0 |
| 20260506225203 | 54 | 293 | 5.0 | 9.0 | 0.00 | 0.00 | 0.00 | 85 | 1078.1 |
| 20260506225118 | 54 | 288 | 5.0 | 9.0 | 0.00 | 0.00 | 0.00 | 85 | 1078.1 |
| 20260506225103 | 54 | 288 | 5.0 | 9.0 | 0.00 | 0.00 | 0.00 | 85 | 1078.0 |
| 20260506224803 | 54 | 283 | 5.0 | 13.0 | 0.00 | 0.00 | 0.00 | 85 | 1078.3 |
| 20260506224703 | 54 | 286 | 6.0 | 13.0 | 0.00 | 0.00 | 0.00 | 84 | 1078.2 |
| 20260506224603 | 54 | 290 | 6.0 | 13.0 | 0.00 | 0.00 | 0.00 | 85 | 1078.2 |
| 20260506224503 | 54 | 293 | 6.0 | 14.0 | 0.00 | 0.00 | 0.00 | 84 | 1078.0 |
| 20260506224403 | 54 | 297 | 6.0 | 15.0 | 0.00 | 0.00 | 0.00 | 84 | 1078.0 |
| 20260506224303 | 54 | 299 | 6.0 | 15.0 | 0.00 | 0.00 | 0.00 | 84 | 1078.3 |
| 20260506224203 | 54 | 302 | 6.0 | 15.0 | 0.00 | 0.00 | 0.00 | 84 | 1078.1 |
| 20260506224118 | 54 | 306 | 6.0 | 15.0 | 0.00 | 0.00 | 0.00 | 84 | 1078.1 |
| 20260506224103 | 54 | 307 | 6.0 | 15.0 | 0.00 | 0.00 | 0.00 | 85 | 1077.9 |
| 20260506224003 | 54 | 313 | 6.0 | 15.0 | 0.00 | 0.00 | 0.00 | 84 | 1078.1 |
| 20260506223803 | 54 | 325 | 6.0 | 15.0 | 0.00 | 0.00 | 0.00 | 84 | 1077.8 |
| 20260506223703 | 54 | 328 | 6.0 | 15.0 | 0.00 | 0.00 | 0.00 | 84 | 1077.8 |
| 20260506223603 | 54 | 335 | 6.0 | 15.0 | 0.00 | 0.00 | 0.00 | 84 | 1077.7 |
| 20260506223403 | 54 | 338 | 6.0 | 15.0 | 0.00 | 0.00 | 0.00 | 84 | 1077.8 |
| 20260506223317 | 55 | 336 | 6.0 | 14.0 | 0.00 | 0.00 | 0.00 | 83 | 1077.8 |
| 20260506223303 | 55 | 334 | 6.0 | 14.0 | 0.00 | 0.00 | 0.00 | 83 | 1077.8 |
| 20260506223203 | 55 | 335 | 6.0 | 14.0 | 0.00 | 0.00 | 0.00 | 83 | 1077.8 |
| 20260506223003 | 55 | 331 | 6.0 | 14.0 | 0.00 | 0.00 | 0.00 | 83 | 1077.8 |
| 20260506222903 | 55 | 330 | 6.0 | 14.0 | 0.00 | 0.00 | 0.00 | 82 | 1077.8 |
| 20260506222803 | 55 | 322 | 6.0 | 13.0 | 0.00 | 0.00 | 0.00 | 82 | 1077.9 |
| 20260506222703 | 55 | 317 | 6.0 | 13.0 | 0.00 | 0.00 | 0.00 | 82 | 1077.9 |
| 20260506222603 | 55 | 309 | 6.0 | 13.0 | 0.00 | 0.00 | 0.00 | 82 | 1078.1 |
| 20260506222517 | 55 | 302 | 6.0 | 13.0 | 0.00 | 0.00 | 0.00 | 82 | 1078.1 |
| 20260506222503 | 55 | 302 | 6.0 | 13.0 | 0.00 | 0.00 | 0.00 | 82 | 1077.6 |
| 20260506222403 | 55 | 304 | 7.0 | 14.0 | 0.00 | 0.00 | 0.00 | 82 | 1077.9 |
| 20260506222203 | 55 | 310 | 7.0 | 14.0 | 0.00 | 0.00 | 0.00 | 82 | 1077.9 |
| 20260506222103 | 55 | 308 | 6.0 | 14.0 | 0.00 | 0.00 | 0.00 | 82 | 1077.7 |
| 20260506222003 | 55 | 307 | 6.0 | 14.0 | 0.00 | 0.00 | 0.00 | 82 | 1077.7 |
| 20260506221903 | 55 | 300 | 7.0 | 14.0 | 0.00 | 0.00 | 0.00 | 82 | 1077.8 |
| 20260506221803 | 55 | 300 | 7.0 | 14.0 | 0.00 | 0.00 | 0.00 | 82 | 1078.0 |
| 20260506221703 | 55 | 295 | 7.0 | 14.0 | 0.00 | 0.00 | 0.00 | 82 | 1077.5 |
| 20260506221603 | 55 | 289 | 7.0 | 14.0 | 0.00 | 0.00 | 0.00 | 82 | 1077.7 |
| 20260506221503 | 56 | 289 | 7.0 | 14.0 | 0.00 | 0.00 | 0.00 | 82 | 1077.9 |
| 20260506221418 | 56 | 287 | 7.0 | 14.0 | 0.00 | 0.00 | 0.00 | 82 | 1077.9 |
| 20260506221403 | 56 | 287 | 7.0 | 14.0 | 0.00 | 0.00 | 0.00 | 82 | 1077.7 |
| 20260506221303 | 56 | 284 | 7.0 | 16.0 | 0.00 | 0.00 | 0.00 | 82 | 1077.6 |
| 20260506221103 | 56 | 279 | 7.0 | 16.0 | 0.00 | 0.00 | 0.00 | 82 | 1077.9 |
| 20260506221003 | 56 | 276 | 7.0 | 16.0 | 0.00 | 0.00 | 0.00 | 82 | 1077.8 |
| 20260506220903 | 56 | 276 | 6.0 | 16.0 | 0.00 | 0.00 | 0.00 | 82 | 1077.8 |
| 20260506220803 | 56 | 270 | 6.0 | 16.0 | 0.00 | 0.00 | 0.00 | 82 | 1077.7 |
| 20260506220703 | 56 | 269 | 6.0 | 16.0 | 0.00 | 0.00 | 0.00 | 82 | 1078.1 |
| 20260506220603 | 56 | 272 | 6.0 | 16.0 | 0.00 | 0.00 | 0.00 | 82 | 1077.6 |
| 20260506220503 | 56 | 270 | 5.0 | 16.0 | 0.00 | 0.00 | 0.00 | 82 | 1078.0 |
| 20260506220403 | 56 | 265 | 5.0 | 16.0 | 0.00 | 0.00 | 0.00 | 82 | 1077.9 |
| 20260506220303 | 56 | 259 | 5.0 | 11.0 | 0.00 | 0.00 | 0.00 | 82 | 1077.8 |
| 20260506220203 | 56 | 258 | 5.0 | 11.0 | 0.00 | 0.00 | 0.00 | 82 | 1077.7 |
| 20260506220004 | 57 | 254 | 5.0 | 11.0 | 0.00 | 0.00 | 0.00 | 81 | 1078.1 |
| 20260506215903 | 57 | 253 | 5.0 | 11.0 | 0.00 | 0.00 | 0.00 | 81 | 1077.9 |
| 20260506215803 | 57 | 255 | 5.0 | 11.0 | 0.00 | 0.00 | 0.00 | 80 | 1077.8 |
| 20260506215703 | 57 | 252 | 4.0 | 10.0 | 0.00 | 0.00 | 0.00 | 81 | 1078.0 |
| 20260506215616 | 57 | 251 | 5.0 | 11.0 | 0.00 | 0.00 | 0.00 | 81 | 1078.0 |
| 20260506215603 | 57 | 250 | 5.0 | 11.0 | 0.00 | 0.00 | 0.00 | 81 | 1077.9 |
| 20260506215503 | 57 | 250 | 5.0 | 11.0 | 0.00 | 0.00 | 0.00 | 81 | 1077.9 |
| 20260506215316 | 58 | 247 | 5.0 | 11.0 | 0.00 | 0.00 | 0.00 | 80 | 1077.5 |
| 20260506215305 | 58 | 247 | 5.0 | 11.0 | 0.00 | 0.00 | 0.00 | 80 | 1077.8 |
| 20260506215203 | 58 | 240 | 4.0 | 11.0 | 0.00 | 0.00 | 0.00 | 80 | 1077.7 |
| 20260506215118 | 58 | 238 | 4.0 | 11.0 | 0.00 | 0.00 | 0.00 | 79 | 1077.7 |
| 20260506215003 | 58 | 226 | 4.0 | 11.0 | 0.00 | 0.00 | 0.00 | 79 | 1077.9 |
| 20260506214817 | 58 | 225 | 4.0 | 11.0 | 0.00 | 0.00 | 0.00 | 78 | 1077.7 |
| 20260506214803 | 58 | 223 | 4.0 | 11.0 | 0.00 | 0.00 | 0.00 | 78 | 1077.6 |
| 20260506214718 | 58 | 219 | 4.0 | 11.0 | 0.00 | 0.00 | 0.00 | 78 | 1077.6 |
| 20260506214703 | 58 | 218 | 4.0 | 11.0 | 0.00 | 0.00 | 0.00 | 78 | 1077.8 |
| 20260506214403 | 58 | 195 | 3.0 | 10.0 | 0.00 | 0.00 | 0.00 | 76 | 1077.6 |
| 20260506214303 | 58 | 192 | 3.0 | 10.0 | 0.00 | 0.00 | 0.00 | 76 | 1077.5 |
| 20260506214203 | 58 | 189 | 2.0 | 10.0 | 0.00 | 0.00 | 0.00 | 76 | 1077.7 |
| 20260506214103 | 58 | 183 | 2.0 | 10.0 | 0.00 | 0.00 | 0.00 | 75 | 1077.5 |
| 20260506214003 | 58 | 166 | 1.0 | 4.0 | 0.00 | 0.00 | 0.00 | 75 | 1077.6 |
| 20260506213903 | 58 | 129 | 1.0 | 4.0 | 0.00 | 0.00 | 0.00 | 75 | 1077.2 |
| 20260506213817 | 58 | 111 | 1.0 | 6.0 | 0.00 | 0.00 | 0.00 | 75 | 1077.2 |
| 20260506213803 | 58 | 106 | 1.0 | 6.0 | 0.00 | 0.00 | 0.00 | 74 | 1076.9 |
| 20260506213718 | 58 | 99 | 1.0 | 6.0 | 0.00 | 0.00 | 0.00 | 74 | 1076.9 |
| 20260506213703 | 58 | 96 | 1.0 | 6.0 | 0.00 | 0.00 | 0.00 | 73 | 1077.1 |
| 20260506213403 | 58 | 77 | 1.0 | 6.0 | 0.00 | 0.00 | 0.00 | 73 | 1076.9 |
| 20260506213303 | 58 | 77 | 1.0 | 6.0 | 0.00 | 0.00 | 0.00 | 73 | 1076.8 |
| 20260506213203 | 58 | 77 | 2.0 | 6.0 | 0.00 | 0.00 | 0.00 | 73 | 1077.0 |
| 20260506213103 | 58 | 76 | 2.0 | 6.0 | 0.00 | 0.00 | 0.00 | 73 | 1077.0 |
| 20260506213003 | 58 | 77 | 2.0 | 6.0 | 0.00 | 0.00 | 0.00 | 74 | 1076.9 |
| 20260506212903 | 58 | 76 | 2.0 | 6.0 | 0.00 | 0.00 | 0.00 | 74 | 1076.9 |
| 20260506212803 | 58 | 73 | 2.0 | 6.0 | 0.00 | 0.00 | 0.00 | 73 | 1076.7 |
| 20260506212703 | 58 | 71 | 2.0 | 6.0 | 0.00 | 0.00 | 0.00 | 73 | 1076.6 |
| 20260506212616 | 58 | 72 | 3.0 | 6.0 | 0.00 | 0.00 | 0.00 | 73 | 1076.6 |
| 20260506212603 | 58 | 72 | 3.0 | 6.0 | 0.00 | 0.00 | 0.00 | 73 | 1076.7 |
| 20260506212503 | 58 | 74 | 3.0 | 7.0 | 0.00 | 0.00 | 0.00 | 73 | 1076.8 |
| 20260506212316 | 59 | 74 | 3.0 | 7.0 | 0.00 | 0.00 | 0.00 | 73 | 1076.9 |
| 20260506212306 | 59 | 75 | 3.0 | 7.0 | 0.00 | 0.00 | 0.00 | 73 | 1076.7 |
| 20260506212217 | 59 | 75 | 3.0 | 7.0 | 0.00 | 0.00 | 0.00 | 73 | 1076.7 |
| 20260506212203 | 59 | 75 | 3.0 | 7.0 | 0.00 | 0.00 | 0.00 | 73 | 1076.8 |
| 20260506211903 | 59 | 78 | 4.0 | 7.0 | 0.00 | 0.00 | 0.00 | 74 | 1076.6 |
| 20260506211803 | 59 | 81 | 4.0 | 7.0 | 0.00 | 0.00 | 0.00 | 74 | 1076.8 |
| 20260506211703 | 59 | 82 | 4.0 | 7.0 | 0.00 | 0.00 | 0.00 | 74 | 1076.8 |
| 20260506211603 | 59 | 83 | 4.0 | 7.0 | 0.00 | 0.00 | 0.00 | 74 | 1076.7 |
| 20260506211503 | 59 | 83 | 4.0 | 7.0 | 0.00 | 0.00 | 0.00 | 74 | 1076.7 |
| 20260506211403 | 59 | 83 | 4.0 | 7.0 | 0.00 | 0.00 | 0.00 | 74 | 1076.8 |
| 20260506211318 | 59 | 83 | 4.0 | 7.0 | 0.00 | 0.00 | 0.00 | 74 | 1076.8 |
| 20260506211217 | 59 | 84 | 4.0 | 7.0 | 0.00 | 0.00 | 0.00 | 73 | 1076.7 |
| 20260506211203 | 59 | 83 | 4.0 | 7.0 | 0.00 | 0.00 | 0.00 | 73 | 1076.7 |
| 20260506210903 | 59 | 81 | 3.0 | 7.0 | 0.00 | 0.00 | 0.00 | 73 | 1076.7 |
| 20260506210803 | 59 | 78 | 3.0 | 7.0 | 0.00 | 0.00 | 0.00 | 73 | 1076.5 |
| 20260506210703 | 59 | 77 | 3.0 | 6.0 | 0.00 | 0.00 | 0.00 | 73 | 1076.6 |
| 20260506210603 | 59 | 76 | 3.0 | 7.0 | 0.00 | 0.00 | 0.00 | 73 | 1076.3 |
| 20260506210517 | 59 | 76 | 3.0 | 7.0 | 0.00 | 0.00 | 0.00 | 73 | 1076.3 |
| 20260506210503 | 59 | 74 | 3.0 | 7.0 | 0.00 | 0.00 | 0.00 | 73 | 1076.8 |
| 20260506210418 | 59 | 72 | 3.0 | 7.0 | 0.00 | 0.00 | 0.00 | 73 | 1076.8 |
| 20260506210403 | 59 | 72 | 3.0 | 7.0 | 0.00 | 0.00 | 0.00 | 73 | 1076.5 |
| 20260506210003 | 59 | 72 | 3.0 | 7.0 | 0.00 | 0.00 | 0.00 | 73 | 1076.5 |
| 20260506205916 | 59 | 74 | 3.0 | 7.0 | 0.00 | 0.00 | 0.00 | 73 | 1076.5 |
| 20260506205903 | 59 | 74 | 3.0 | 7.0 | 0.00 | 0.00 | 0.00 | 73 | 1076.7 |
| 20260506205803 | 59 | 72 | 3.0 | 7.0 | 0.00 | 0.00 | 0.00 | 73 | 1076.6 |
| 20260506205616 | 59 | 72 | 3.0 | 7.0 | 0.00 | 0.00 | 0.00 | 74 | 1076.6 |
| 20260506205603 | 58 | 71 | 3.0 | 7.0 | 0.00 | 0.00 | 0.00 | 74 | 1076.5 |
| 20260506205503 | 58 | 72 | 3.0 | 6.0 | 0.00 | 0.00 | 0.00 | 74 | 1076.5 |
| 20260506205305 | 58 | 73 | 3.0 | 6.0 | 0.00 | 0.00 | 0.00 | 74 | 1076.5 |
| 20260506205203 | 58 | 74 | 2.0 | 6.0 | 0.00 | 0.00 | 0.00 | 74 | 1076.6 |
| 20260506205103 | 58 | 70 | 2.0 | 6.0 | 0.00 | 0.00 | 0.00 | 74 | 1076.6 |
| 20260506205003 | 58 | 68 | 2.0 | 6.0 | 0.00 | 0.00 | 0.00 | 74 | 1076.5 |
| 20260506204903 | 58 | 67 | 2.0 | 6.0 | 0.00 | 0.00 | 0.00 | 74 | 1076.5 |
| 20260506204803 | 58 | 68 | 2.0 | 6.0 | 0.00 | 0.00 | 0.00 | 74 | 1076.5 |
| 20260506204703 | 58 | 69 | 2.0 | 6.0 | 0.00 | 0.00 | 0.00 | 73 | 1076.3 |
| 20260506204603 | 58 | 70 | 2.0 | 6.0 | 0.00 | 0.00 | 0.00 | 74 | 1076.3 |
| 20260506204503 | 58 | 68 | 2.0 | 4.0 | 0.00 | 0.00 | 0.00 | 73 | 1076.2 |
| 20260506204318 | 58 | 68 | 2.0 | 4.0 | 0.00 | 0.00 | 0.00 | 74 | 1076.6 |
| 20260506204304 | 58 | 68 | 2.0 | 4.0 | 0.00 | 0.00 | 0.00 | 74 | 1076.2 |
| 20260506204203 | 58 | 65 | 2.0 | 4.0 | 0.00 | 0.00 | 0.00 | 74 | 1076.3 |
| 20260506204117 | 58 | 65 | 2.0 | 4.0 | 0.00 | 0.00 | 0.00 | 73 | 1076.3 |
| 20260506204003 | 58 | 67 | 2.0 | 4.0 | 0.00 | 0.00 | 0.00 | 73 | 1076.6 |
| 20260506203803 | 58 | 64 | 2.0 | 4.0 | 0.00 | 0.00 | 0.00 | 74 | 1076.6 |
| 20260506203703 | 58 | 60 | 2.0 | 6.0 | 0.00 | 0.00 | 0.00 | 73 | 1076.6 |
| 20260506203603 | 58 | 60 | 2.0 | 6.0 | 0.00 | 0.00 | 0.00 | 73 | 1076.5 |
| 20260506203503 | 58 | 60 | 2.0 | 6.0 | 0.00 | 0.00 | 0.00 | 73 | 1076.5 |
| 20260506203403 | 58 | 62 | 2.0 | 6.0 | 0.00 | 0.00 | 0.00 | 74 | 1076.6 |
| 20260506203303 | 58 | 60 | 2.0 | 6.0 | 0.00 | 0.00 | 0.00 | 74 | 1076.6 |
| 20260506203203 | 58 | 59 | 2.0 | 6.0 | 0.00 | 0.00 | 0.00 | 74 | 1076.6 |
| 20260506203103 | 58 | 59 | 2.0 | 6.0 | 0.00 | 0.00 | 0.00 | 74 | 1076.6 |
| 20260506203003 | 58 | 55 | 2.0 | 6.0 | 0.00 | 0.00 | 0.00 | 74 | 1076.6 |
| 20260506202903 | 58 | 55 | 1.0 | 6.0 | 0.00 | 0.00 | 0.00 | 74 | 1076.7 |
| 20260506202803 | 58 | 54 | 1.0 | 6.0 | 0.00 | 0.00 | 0.00 | 74 | 1076.5 |
| 20260506202703 | 58 | 54 | 1.0 | 6.0 | 0.00 | 0.00 | 0.00 | 73 | 1076.5 |
| 20260506202603 | 58 | 49 | 1.0 | 6.0 | 0.00 | 0.00 | 0.00 | 73 | 1076.6 |
| 20260506202503 | 58 | 45 | 0.0 | 4.0 | 0.00 | 0.00 | 0.00 | 73 | 1076.6 |
| 20260506202403 | 58 | 45 | 0.0 | 4.0 | 0.00 | 0.00 | 0.00 | 73 | 1076.7 |
| 20260506202306 | 58 | 43 | 0.0 | 4.0 | 0.00 | 0.00 | 0.00 | 73 | 1076.5 |
| 20260506202216 | 58 | 44 | 0.0 | 4.0 | 0.00 | 0.00 | 0.00 | 73 | 1076.5 |
| 20260506202203 | 58 | 43 | 0.0 | 4.0 | 0.00 | 0.00 | 0.00 | 73 | 1076.5 |
| 20260506202103 | 58 | 39 | 0.0 | 4.0 | 0.00 | 0.00 | 0.00 | 72 | 1076.6 |
| 20260506201903 | 58 | 10 | 0.0 | 2.0 | 0.00 | 0.00 | 0.00 | 72 | 1076.5 |
| 20260506201803 | 58 | 1 | 0.0 | 2.0 | 0.00 | 0.00 | 0.00 | 73 | 1076.6 |
| 20260506201703 | 58 | 1 | 0.0 | 2.0 | 0.00 | 0.00 | 0.00 | 72 | 1076.4 |
| 20260506201603 | 59 | 4 | 0.0 | 2.0 | 0.00 | 0.00 | 0.00 | 72 | 1076.6 |
| 20260506201503 | 59 | 2 | 0.0 | 2.0 | 0.00 | 0.00 | 0.00 | 72 | 1076.6 |
| 20260506201403 | 59 | 358 | 1.0 | 3.0 | 0.00 | 0.00 | 0.00 | 72 | 1076.4 |
| 20260506201303 | 59 | 357 | 1.0 | 3.0 | 0.00 | 0.00 | 0.00 | 72 | 1076.5 |
| 20260506201203 | 59 | 357 | 1.0 | 3.0 | 0.00 | 0.00 | 0.00 | 74 | 1076.7 |
| 20260506201103 | 59 | 357 | 1.0 | 3.0 | 0.00 | 0.00 | 0.00 | 74 | 1076.6 |
| 20260506201017 | 59 | 357 | 1.0 | 3.0 | 0.00 | 0.00 | 0.00 | 71 | 1076.6 |
| 20260506201003 | 59 | 357 | 1.0 | 3.0 | 0.00 | 0.00 | 0.00 | 71 | 1076.5 |
| 20260506200903 | 59 | 354 | 1.0 | 3.0 | 0.00 | 0.00 | 0.00 | 72 | 1076.4 |
| 20260506200703 | 59 | 348 | 1.0 | 3.0 | 0.00 | 0.00 | 0.00 | 72 | 1076.7 |
| 20260506200603 | 59 | 340 | 1.0 | 3.0 | 0.00 | 0.00 | 0.00 | 73 | 1076.7 |
| 20260506200503 | 59 | 336 | 1.0 | 3.0 | 0.00 | 0.00 | 0.00 | 73 | 1076.5 |
| 20260506200303 | 60 | 345 | 1.0 | 4.0 | 0.00 | 0.00 | 0.00 | 72 | 1076.6 |
| 20260506200218 | 60 | 345 | 1.0 | 4.0 | 0.00 | 0.00 | 0.00 | 72 | 1076.6 |
| 20260506195903 | 60 | 345 | 2.0 | 4.0 | 0.00 | 0.00 | 0.00 | 73 | 1076.7 |
| 20260506195803 | 60 | 344 | 2.0 | 4.0 | 0.00 | 0.00 | 0.00 | 72 | 1076.8 |
| 20260506195703 | 60 | 343 | 2.0 | 4.0 | 0.00 | 0.00 | 0.00 | 72 | 1076.5 |
| 20260506195603 | 60 | 341 | 2.0 | 4.0 | 0.00 | 0.00 | 0.00 | 71 | 1076.5 |
| 20260506195503 | 60 | 342 | 2.0 | 4.0 | 0.00 | 0.00 | 0.00 | 72 | 1076.7 |
| 20260506195403 | 60 | 342 | 2.0 | 4.0 | 0.00 | 0.00 | 0.00 | 71 | 1076.4 |
| 20260506195317 | 60 | 342 | 2.0 | 4.0 | 0.00 | 0.00 | 0.00 | 71 | 1076.4 |
| 20260506195305 | 60 | 341 | 2.0 | 4.0 | 0.00 | 0.00 | 0.00 | 70 | 1076.7 |
| 20260506195218 | 60 | 340 | 2.0 | 3.0 | 0.00 | 0.00 | 0.00 | 70 | 1076.7 |
| 20260506195203 | 60 | 340 | 2.0 | 3.0 | 0.00 | 0.00 | 0.00 | 70 | 1076.8 |
| 20260506194903 | 61 | 339 | 2.0 | 4.0 | 0.00 | 0.00 | 0.00 | 69 | 1076.7 |
| 20260506194803 | 61 | 337 | 2.0 | 4.0 | 0.00 | 0.00 | 0.00 | 70 | 1076.7 |
| 20260506194703 | 61 | 340 | 2.0 | 4.0 | 0.00 | 0.00 | 0.00 | 69 | 1076.6 |
| 20260506194603 | 61 | 341 | 2.0 | 4.0 | 0.00 | 0.00 | 0.00 | 68 | 1076.6 |
| 20260506194503 | 61 | 341 | 2.0 | 4.0 | 0.00 | 0.00 | 0.00 | 69 | 1076.5 |
| 20260506194403 | 61 | 341 | 2.0 | 4.0 | 0.00 | 0.00 | 0.00 | 68 | 1076.7 |
| 20260506194303 | 61 | 340 | 2.0 | 4.0 | 0.00 | 0.00 | 0.00 | 67 | 1076.8 |
| 20260506194221 | 62 | 341 | 2.0 | 4.0 | 0.00 | 0.00 | 0.00 | 67 | 1076.8 |
| 20260506194004 | 62 | 345 | 1.0 | 4.0 | 0.00 | 0.00 | 0.00 | 67 | 1076.5 |
| 20260506193903 | 62 | 354 | 1.0 | 4.0 | 0.00 | 0.00 | 0.00 | 66 | 1076.5 |
| 20260506193803 | 62 | 358 | 1.0 | 3.0 | 0.00 | 0.00 | 0.00 | 66 | 1076.8 |
| 20260506193703 | 62 | 360 | 1.0 | 3.0 | 0.00 | 0.00 | 0.00 | 66 | 1076.5 |
| 20260506193617 | 62 | 2 | 1.0 | 3.0 | 0.00 | 0.00 | 0.00 | 66 | 1076.5 |
| 20260506193603 | 62 | 3 | 1.0 | 3.0 | 0.00 | 0.00 | 0.00 | 66 | 1076.6 |
| 20260506193503 | 62 | 8 | 2.0 | 3.0 | 0.00 | 0.00 | 0.00 | 66 | 1076.4 |
| 20260506193418 | 62 | 13 | 2.0 | 3.0 | 0.00 | 0.00 | 0.00 | 66 | 1076.4 |
| 20260506193303 | 62 | 18 | 2.0 | 4.0 | 0.00 | 0.00 | 0.00 | 66 | 1076.6 |
| 20260506193103 | 62 | 25 | 1.0 | 4.0 | 0.00 | 0.00 | 0.00 | 65 | 1076.4 |
| 20260506193003 | 62 | 25 | 1.0 | 4.0 | 0.00 | 0.00 | 0.00 | 66 | 1076.5 |
| 20260506192917 | 62 | 21 | 1.0 | 4.0 | 0.00 | 0.00 | 0.00 | 66 | 1076.5 |
| 20260506192903 | 62 | 22 | 1.0 | 4.0 | 0.00 | 0.00 | 0.00 | 65 | 1076.6 |
| 20260506192803 | 62 | 27 | 1.0 | 4.0 | 0.00 | 0.00 | 0.00 | 65 | 1076.4 |
| 20260506192603 | 62 | 47 | 2.0 | 6.0 | 0.00 | 0.00 | 0.00 | 65 | 1076.5 |
| 20260506192503 | 62 | 53 | 1.0 | 6.0 | 0.00 | 0.00 | 0.00 | 64 | 1076.6 |
| 20260506192403 | 62 | 56 | 2.0 | 7.0 | 0.00 | 0.00 | 0.00 | 64 | 1076.3 |
| 20260506192305 | 62 | 61 | 2.0 | 7.0 | 0.00 | 0.00 | 0.00 | 64 | 1076.4 |
| 20260506192203 | 62 | 63 | 2.0 | 7.0 | 0.00 | 0.00 | 0.00 | 64 | 1076.4 |
| 20260506192103 | 62 | 61 | 3.0 | 7.0 | 0.00 | 0.00 | 0.00 | 64 | 1076.3 |
| 20260506192003 | 62 | 63 | 3.0 | 7.0 | 0.00 | 0.00 | 0.00 | 64 | 1076.2 |
| 20260506191903 | 62 | 64 | 3.0 | 7.0 | 0.00 | 0.00 | 0.00 | 64 | 1076.4 |
| 20260506191818 | 62 | 64 | 3.0 | 7.0 | 0.00 | 0.00 | 0.00 | 64 | 1076.4 |
| 20260506191803 | 62 | 64 | 3.0 | 7.0 | 0.00 | 0.00 | 0.00 | 64 | 1076.3 |
| 20260506191703 | 62 | 63 | 3.0 | 7.0 | 0.00 | 0.00 | 0.00 | 64 | 1076.4 |
| 20260506191503 | 62 | 64 | 4.0 | 8.0 | 0.00 | 0.00 | 0.00 | 64 | 1076.4 |
| 20260506191403 | 62 | 65 | 4.0 | 8.0 | 0.00 | 0.00 | 0.00 | 64 | 1076.2 |
| 20260506191303 | 62 | 64 | 4.0 | 8.0 | 0.00 | 0.00 | 0.00 | 64 | 1076.3 |
| 20260506191203 | 63 | 64 | 3.0 | 8.0 | 0.00 | 0.00 | 0.00 | 64 | 1076.4 |
| 20260506191103 | 63 | 67 | 3.0 | 8.0 | 0.00 | 0.00 | 0.00 | 63 | 1076.4 |
| 20260506191003 | 63 | 65 | 3.0 | 8.0 | 0.00 | 0.00 | 0.00 | 63 | 1076.2 |
| 20260506190903 | 63 | 67 | 3.0 | 8.0 | 0.00 | 0.00 | 0.00 | 63 | 1076.3 |
| 20260506190803 | 63 | 69 | 3.0 | 8.0 | 0.00 | 0.00 | 0.00 | 63 | 1076.2 |
| 20260506190703 | 63 | 68 | 4.0 | 8.0 | 0.00 | 0.00 | 0.00 | 63 | 1076.3 |
| 20260506190603 | 63 | 67 | 4.0 | 8.0 | 0.00 | 0.00 | 0.00 | 63 | 1076.3 |
| 20260506190503 | 63 | 66 | 4.0 | 8.0 | 0.00 | 0.00 | 0.00 | 63 | 1076.2 |
| 20260506190403 | 63 | 65 | 4.0 | 13.0 | 0.00 | 0.00 | 0.00 | 63 | 1076.4 |
| 20260506190303 | 63 | 65 | 4.0 | 13.0 | 0.00 | 0.00 | 0.00 | 63 | 1076.1 |
| 20260506190203 | 63 | 64 | 4.0 | 13.0 | 0.00 | 0.00 | 0.00 | 63 | 1076.3 |
| 20260506190004 | 63 | 63 | 4.0 | 13.0 | 0.00 | 0.00 | 0.00 | 63 | 1076.3 |
| 20260506185903 | 63 | 60 | 4.0 | 13.0 | 0.00 | 0.00 | 0.00 | 63 | 1076.3 |
| 20260506185803 | 63 | 59 | 4.0 | 13.0 | 0.00 | 0.00 | 0.00 | 63 | 1076.2 |
| 20260506185703 | 63 | 59 | 4.0 | 13.0 | 0.00 | 0.00 | 0.00 | 63 | 1076.2 |
| 20260506185603 | 63 | 57 | 4.0 | 13.0 | 0.00 | 0.00 | 0.00 | 63 | 1076.2 |
| 20260506185503 | 63 | 59 | 4.0 | 13.0 | 0.00 | 0.00 | 0.00 | 63 | 1076.3 |
| 20260506185403 | 63 | 62 | 3.0 | 8.0 | 0.00 | 0.00 | 0.00 | 62 | 1076.2 |
| 20260506185306 | 63 | 64 | 4.0 | 9.0 | 0.00 | 0.00 | 0.00 | 62 | 1076.3 |
| 20260506185203 | 63 | 66 | 4.0 | 9.0 | 0.00 | 0.00 | 0.00 | 63 | 1076.2 |
| 20260506185103 | 63 | 69 | 4.0 | 9.0 | 0.00 | 0.00 | 0.00 | 63 | 1076.2 |
| 20260506185003 | 63 | 68 | 3.0 | 9.0 | 0.00 | 0.00 | 0.00 | 62 | 1076.1 |
| 20260506184903 | 63 | 71 | 3.0 | 9.0 | 0.00 | 0.00 | 0.00 | 62 | 1076.1 |
| 20260506184803 | 63 | 70 | 3.0 | 9.0 | 0.00 | 0.00 | 0.00 | 62 | 1076.1 |
| 20260506184703 | 63 | 71 | 3.0 | 9.0 | 0.00 | 0.00 | 0.00 | 62 | 1076.1 |
| 20260506184603 | 63 | 74 | 3.0 | 9.0 | 0.00 | 0.00 | 0.00 | 62 | 1076.1 |
| 20260506184503 | 63 | 74 | 3.0 | 9.0 | 0.00 | 0.00 | 0.00 | 62 | 1076.2 |
| 20260506184403 | 63 | 71 | 2.0 | 9.0 | 0.00 | 0.00 | 0.00 | 62 | 1076.2 |
| 20260506184303 | 63 | 69 | 2.0 | 7.0 | 0.00 | 0.00 | 0.00 | 61 | 1076.4 |
| 20260506184203 | 63 | 68 | 2.0 | 7.0 | 0.00 | 0.00 | 0.00 | 62 | 1076.0 |
| 20260506184103 | 63 | 66 | 2.0 | 7.0 | 0.00 | 0.00 | 0.00 | 62 | 1076.1 |
| 20260506184018 | 63 | 66 | 2.0 | 7.0 | 0.00 | 0.00 | 0.00 | 61 | 1076.1 |
| 20260506184003 | 63 | 66 | 2.0 | 7.0 | 0.00 | 0.00 | 0.00 | 61 | 1076.2 |
| 20260506183903 | 63 | 64 | 2.0 | 6.0 | 0.00 | 0.00 | 0.00 | 61 | 1076.1 |
| 20260506183703 | 63 | 61 | 2.0 | 6.0 | 0.00 | 0.00 | 0.00 | 61 | 1075.8 |
| 20260506183603 | 64 | 59 | 2.0 | 6.0 | 0.00 | 0.00 | 0.00 | 60 | 1075.9 |
| 20260506183503 | 64 | 59 | 2.0 | 6.0 | 0.00 | 0.00 | 0.00 | 60 | 1076.2 |
| 20260506183403 | 64 | 58 | 2.0 | 6.0 | 0.00 | 0.00 | 0.00 | 60 | 1076.1 |
| 20260506183303 | 64 | 59 | 2.0 | 6.0 | 0.00 | 0.00 | 0.00 | 60 | 1076.1 |
| 20260506183203 | 64 | 62 | 2.0 | 6.0 | 0.00 | 0.00 | 0.00 | 59 | 1076.0 |
| 20260506183103 | 64 | 63 | 2.0 | 6.0 | 0.00 | 0.00 | 0.00 | 60 | 1076.1 |
| 20260506183003 | 64 | 68 | 3.0 | 7.0 | 0.00 | 0.00 | 0.00 | 59 | 1076.2 |
| 20260506182903 | 64 | 69 | 3.0 | 7.0 | 0.00 | 0.00 | 0.00 | 59 | 1076.3 |
| 20260506182803 | 64 | 70 | 3.0 | 7.0 | 0.00 | 0.00 | 0.00 | 60 | 1076.2 |
| 20260506182703 | 64 | 74 | 3.0 | 8.0 | 0.00 | 0.00 | 0.00 | 60 | 1076.1 |
| 20260506182603 | 64 | 75 | 4.0 | 9.0 | 0.00 | 0.00 | 0.00 | 60 | 1076.1 |
| 20260506182503 | 64 | 78 | 4.0 | 11.0 | 0.00 | 0.00 | 0.00 | 59 | 1076.1 |
| 20260506182403 | 64 | 77 | 4.0 | 11.0 | 0.00 | 0.00 | 0.00 | 59 | 1076.0 |
| 20260506182318 | 64 | 78 | 4.0 | 11.0 | 0.00 | 0.00 | 0.00 | 59 | 1076.0 |
| 20260506182306 | 64 | 77 | 4.0 | 11.0 | 0.00 | 0.00 | 0.00 | 59 | 1076.1 |
| 20260506182203 | 64 | 74 | 4.0 | 11.0 | 0.00 | 0.00 | 0.00 | 59 | 1076.0 |
| 20260506182018 | 64 | 74 | 4.0 | 11.0 | 0.00 | 0.00 | 0.00 | 59 | 1076.2 |
| 20260506182003 | 64 | 73 | 4.0 | 11.0 | 0.00 | 0.00 | 0.00 | 59 | 1076.0 |
| 20260506181903 | 65 | 74 | 4.0 | 11.0 | 0.00 | 0.00 | 0.00 | 58 | 1076.2 |
| 20260506181703 | 65 | 74 | 4.0 | 11.0 | 0.00 | 0.00 | 0.00 | 59 | 1076.0 |
| 20260506181603 | 65 | 75 | 4.0 | 11.0 | 0.00 | 0.00 | 0.00 | 59 | 1076.0 |
| 20260506181503 | 65 | 75 | 4.0 | 10.0 | 0.00 | 0.00 | 0.00 | 58 | 1076.1 |
| 20260506181403 | 65 | 77 | 4.0 | 10.0 | 0.00 | 0.00 | 0.00 | 58 | 1075.9 |
| 20260506181303 | 65 | 78 | 4.0 | 10.0 | 0.00 | 0.00 | 0.00 | 58 | 1075.9 |
| 20260506181203 | 65 | 82 | 5.0 | 10.0 | 0.00 | 0.00 | 0.00 | 58 | 1076.0 |
| 20260506181103 | 65 | 83 | 5.0 | 10.0 | 0.00 | 0.00 | 0.00 | 58 | 1076.0 |
| 20260506181003 | 65 | 80 | 5.0 | 10.0 | 0.00 | 0.00 | 0.00 | 58 | 1076.1 |
| 20260506180903 | 65 | 82 | 5.0 | 10.0 | 0.00 | 0.00 | 0.00 | 58 | 1076.1 |
| 20260506180803 | 65 | 83 | 5.0 | 10.0 | 0.00 | 0.00 | 0.00 | 58 | 1075.9 |
| 20260506180718 | 65 | 83 | 5.0 | 10.0 | 0.00 | 0.00 | 0.00 | 58 | 1075.9 |
| 20260506180703 | 65 | 82 | 5.0 | 10.0 | 0.00 | 0.00 | 0.00 | 57 | 1076.1 |
| 20260506180603 | 65 | 83 | 5.0 | 10.0 | 0.00 | 0.00 | 0.00 | 57 | 1076.0 |
| 20260506180403 | 65 | 82 | 5.0 | 11.0 | 0.00 | 0.00 | 0.00 | 57 | 1076.1 |
| 20260506180303 | 65 | 80 | 5.0 | 11.0 | 0.00 | 0.00 | 0.00 | 57 | 1076.1 |
| 20260506180203 | 65 | 80 | 6.0 | 11.0 | 0.00 | 0.00 | 0.00 | 57 | 1076.1 |
| 20260506180004 | 66 | 85 | 6.0 | 14.0 | 0.00 | 0.00 | 0.00 | 57 | 1076.1 |
| 20260506175803 | 66 | 84 | 7.0 | 14.0 | 0.00 | 0.00 | 0.00 | 56 | 1076.0 |
| 20260506175703 | 66 | 84 | 7.0 | 14.0 | 0.00 | 0.00 | 0.00 | 56 | 1076.2 |
| 20260506175603 | 66 | 85 | 6.0 | 14.0 | 0.00 | 0.00 | 0.00 | 56 | 1076.0 |
| 20260506175503 | 66 | 83 | 6.0 | 14.0 | 0.00 | 0.00 | 0.00 | 56 | 1076.0 |
| 20260506175403 | 66 | 87 | 6.0 | 14.0 | 0.00 | 0.00 | 0.00 | 56 | 1076.1 |
| 20260506175306 | 66 | 92 | 6.0 | 14.0 | 0.00 | 0.00 | 0.00 | 56 | 1075.9 |
| 20260506175203 | 66 | 94 | 6.0 | 14.0 | 0.00 | 0.00 | 0.00 | 56 | 1076.2 |
| 20260506175103 | 66 | 90 | 7.0 | 18.0 | 0.00 | 0.00 | 0.00 | 56 | 1076.0 |
| 20260506175003 | 66 | 86 | 7.0 | 18.0 | 0.00 | 0.00 | 0.00 | 56 | 1075.9 |
| 20260506174903 | 66 | 87 | 7.0 | 18.0 | 0.00 | 0.00 | 0.00 | 55 | 1075.9 |
| 20260506174803 | 66 | 86 | 7.0 | 18.0 | 0.00 | 0.00 | 0.00 | 55 | 1075.9 |
| 20260506174718 | 66 | 90 | 7.0 | 18.0 | 0.00 | 0.00 | 0.00 | 55 | 1075.9 |
| 20260506174703 | 66 | 91 | 7.0 | 18.0 | 0.00 | 0.00 | 0.00 | 55 | 1076.0 |